Time,TemperatureF,DewpointF,PressureIn,WindDirection,WindDirectionDegrees,WindSpeedMPH,WindSpeedGustMPH,Humidity,HourlyPrecipIn,Conditions,Clouds,dailyrainin,SoftwareType,DateUTC
2013-11-01 00:00:00,70.1,65.0,29.68,SSW,212,16.6,29.9,84,0.01,OVC,,0.01,WeatherDisplay:10.37,2013-11-01 04:00:00,
2013-11-01 00:01:00,70.1,65.0,29.68,SSW,193,12.5,24.2,84,0.00,RA,,0.00,WeatherDisplay:10.37,2013-11-01 04:01:00,
2013-11-01 00:06:00,70.3,65.2,29.68,SSE,152,19.4,49.5,84,0.00,RA,,0.00,WeatherDisplay:10.37,2013-11-01 04:06:00,
2013-11-01 00:07:00,70.3,65.2,29.68,SSE,162,12.2,19.6,84,0.00,RA,,0.00,WeatherDisplay:10.37,2013-11-01 04:07:00,
2013-11-01 00:11:00,70.5,65.1,29.68,SE,144,15.3,28.8,83,0.00,OVC,,0.00,WeatherDisplay:10.37,2013-11-01 04:11:00,
2013-11-01 00:12:00,70.5,65.4,29.68,SSE,151,13.8,19.6,84,0.00,OVC,,0.00,WeatherDisplay:10.37,2013-11-01 04:12:00,
2013-11-01 00:16:00,70.6,65.2,29.67,SE,141,14.5,21.9,83,0.00,OVC,,0.00,WeatherDisplay:10.37,2013-11-01 04:16:00,
2013-11-01 00:17:00,70.6,65.2,29.67,South,176,10.7,16.1,83,0.00,OVC,,0.00,WeatherDisplay:10.37,2013-11-01 04:17:00,
2013-11-01 00:19:00,70.6,65.2,29.67,SSE,154,14.8,19.6,83,0.00,OVC,,0.00,WeatherDisplay:10.37,2013-11-01 04:19:00,
2013-11-01 00:21:00,70.6,65.2,29.67,SSE,161,19.0,22.0,83,0.00,OVC,,0.00,WeatherDisplay:10.37,2013-11-01 04:21:00,
2013-11-01 00:22:00,70.6,65.2,29.67,SE,146,20.6,25.0,83,0.00,OVC,,0.00,WeatherDisplay:10.37,2013-11-01 04:22:00,
2013-11-01 00:23:00,70.6,65.2,29.67,SSE,167,19.6,29.9,83,0.00,OVC,,0.00,WeatherDisplay:10.37,2013-11-01 04:23:00,
2013-11-01 00:25:00,70.7,65.3,29.67,SSE,159,9.5,25.3,83,0.00,OVC,,0.00,WeatherDisplay:10.37,2013-11-01 04:25:00,
2013-11-01 00:26:00,70.6,65.2,29.67,SSE,150,11.4,18.4,83,0.00,OVC,,0.00,WeatherDisplay:10.37,2013-11-01 04:26:00,
2013-11-01 00:27:00,70.6,65.2,29.67,SE,133,11.5,18.4,83,0.00,OVC,,0.00,WeatherDisplay:10.37,2013-11-01 04:27:00,
2013-11-01 00:28:00,70.6,65.2,29.67,SE,145,11.9,17.3,83,0.00,OVC,,0.00,WeatherDisplay:10.37,2013-11-01 04:28:00,
2013-11-01 00:30:00,70.7,65.3,29.67,SSE,158,15.4,25.3,83,0.00,OVC,,0.00,WeatherDisplay:10.37,2013-11-01 04:30:00,
2013-11-01 00:31:00,70.7,65.3,29.67,SE,145,15.7,21.9,83,0.00,OVC,,0.00,WeatherDisplay:10.37,2013-11-01 04:31:00,
2013-11-01 00:32:00,70.7,65.3,29.67,SSE,158,17.4,28.8,83,0.00,OVC,,0.00,WeatherDisplay:10.37,2013-11-01 04:32:00,
2013-11-01 00:33:00,70.7,65.3,29.67,SSE,158,12.0,20.0,83,0.00,OVC,,0.00,WeatherDisplay:10.37,2013-11-01 04:33:00,
2013-11-01 00:37:00,70.7,65.6,29.66,SSE,167,19.6,29.9,84,0.00,OVC,,0.00,WeatherDisplay:10.37,2013-11-01 04:37:00,
2013-11-01 00:38:00,70.6,65.2,29.67,SSE,163,22.9,39.1,83,0.00,OVC,,0.00,WeatherDisplay:10.37,2013-11-01 04:38:00,
2013-11-01 00:42:00,70.6,65.5,29.67,SSE,155,13.4,26.5,84,0.00,OVC,,0.00,WeatherDisplay:10.37,2013-11-01 04:42:00,
2013-11-01 00:43:00,70.6,65.5,29.67,SSE,157,23.3,43.7,84,0.00,OVC,,0.00,WeatherDisplay:10.37,2013-11-01 04:43:00,
2013-11-01 00:47:00,70.6,65.5,29.67,SSE,148,17.0,25.3,84,0.00,OVC,,0.00,WeatherDisplay:10.37,2013-11-01 04:47:00,
2013-11-01 00:48:00,70.6,65.5,29.67,South,191,13.6,25.3,84,0.00,OVC,,0.00,WeatherDisplay:10.37,2013-11-01 04:48:00,
2013-11-01 00:52:00,70.6,65.2,29.67,SSE,153,15.7,26.5,83,0.00,OVC,,0.00,WeatherDisplay:10.37,2013-11-01 04:52:00,
2013-11-01 00:53:00,70.6,65.2,29.67,SSE,152,20.3,26.5,83,0.00,OVC,,0.00,WeatherDisplay:10.37,2013-11-01 04:53:00,
2013-11-01 00:57:00,70.6,65.2,29.67,SSE,149,12.5,24.2,83,0.00,OVC,,0.00,WeatherDisplay:10.37,2013-11-01 04:57:00,
2013-11-01 00:58:00,70.6,65.5,29.67,South,169,15.1,19.6,84,0.00,OVC,,0.00,WeatherDisplay:10.37,2013-11-01 04:58:00,
2013-11-01 00:59:00,70.6,65.5,29.67,SSE,149,19.2,19.6,84,0.00,OVC,,0.00,WeatherDisplay:10.37,2013-11-01 04:59:00,
2013-11-01 01:00:00,70.5,65.8,29.67,SSE,160,13.2,27.6,85,0.00,OVC,,0.00,WeatherDisplay:10.37,2013-11-01 05:00:00,
2013-11-01 01:02:00,70.4,66.0,29.68,SSE,163,16.9,24.2,86,0.00,-RA,,0.00,WeatherDisplay:10.37,2013-11-01 05:02:00,
2013-11-01 01:03:00,70.3,65.9,29.68,SE,144,17.9,24.2,86,0.00,-RA,,0.00,WeatherDisplay:10.37,2013-11-01 05:03:00,
2013-11-01 01:04:00,70.2,66.1,29.68,SSE,164,12.7,19.6,87,0.00,-RA,,0.00,WeatherDisplay:10.37,2013-11-01 05:04:00,
2013-11-01 01:06:00,70.0,66.3,29.68,SSE,148,11.5,19.6,88,0.00,-RA,,0.00,WeatherDisplay:10.37,2013-11-01 05:06:00,
2013-11-01 01:07:00,69.8,66.4,29.68,South,179,16.2,29.9,89,0.00,-RA,,0.00,WeatherDisplay:10.37,2013-11-01 05:07:00,
2013-11-01 01:08:00,69.7,67.0,29.68,South,170,13.5,20.7,91,0.00,-RA,,0.00,WeatherDisplay:10.37,2013-11-01 05:08:00,
2013-11-01 01:09:00,69.5,66.8,29.68,South,175,12.5,18.4,91,0.00,-RA,,0.00,WeatherDisplay:10.37,2013-11-01 05:09:00,
2013-11-01 01:11:00,69.2,66.8,29.67,South,170,16.3,20.7,92,0.00,-RA,,0.00,WeatherDisplay:10.37,2013-11-01 05:11:00,
2013-11-01 01:13:00,68.9,66.8,29.67,SE,143,8.9,18.4,93,0.00,-RA,,0.00,WeatherDisplay:10.37,2013-11-01 05:13:00,
2013-11-01 01:14:00,68.8,66.7,29.67,South,170,12.2,19.6,93,0.00,-RA,,0.00,WeatherDisplay:10.37,2013-11-01 05:14:00,
2013-11-01 01:15:00,68.7,66.6,29.68,SSE,167,11.4,17.3,93,0.01,-RA,,0.01,WeatherDisplay:10.37,2013-11-01 05:15:00,
2013-11-01 01:16:00,68.5,67.0,29.67,SSW,207,6.9,12.7,95,0.01,-RA,,0.01,WeatherDisplay:10.37,2013-11-01 05:16:00,
2013-11-01 01:18:00,68.3,66.8,29.67,South,190,8.9,17.3,95,0.01,-RA,,0.01,WeatherDisplay:10.37,2013-11-01 05:18:00,
2013-11-01 01:19:00,68.3,66.8,29.67,South,188,8.6,17.3,95,0.01,-RA,,0.01,WeatherDisplay:10.37,2013-11-01 05:19:00,
2013-11-01 01:20:00,68.2,67.0,29.67,South,173,8.0,21.0,96,0.00,-RA,,0.01,WeatherDisplay:10.37,2013-11-01 05:20:00,
2013-11-01 01:21:00,68.0,66.8,29.67,South,174,11.2,13.8,96,0.01,-RA,,0.01,WeatherDisplay:10.37,2013-11-01 05:21:00,
2013-11-01 01:24:00,67.8,66.6,29.67,SSE,164,9.1,19.6,96,0.01,-RA,,0.01,WeatherDisplay:10.37,2013-11-01 05:24:00,
2013-11-01 01:25:00,67.7,66.8,29.67,South,189,9.6,17.3,97,0.01,-RA,,0.01,WeatherDisplay:10.37,2013-11-01 05:25:00,
2013-11-01 01:26:00,67.7,66.8,29.68,SSE,166,9.1,15.0,97,0.01,-RA,,0.01,WeatherDisplay:10.37,2013-11-01 05:26:00,
2013-11-01 01:29:00,67.5,66.9,29.68,SSE,156,12.5,19.6,98,0.02,-RA,,0.02,WeatherDisplay:10.37,2013-11-01 05:29:00,
2013-11-01 01:30:00,67.5,66.9,29.67,SSE,152,8.4,17.3,98,0.02,-RA,,0.02,WeatherDisplay:10.37,2013-11-01 05:30:00,
2013-11-01 01:31:00,67.4,66.8,29.67,SSE,165,9.6,14.0,98,0.02,-RA,,0.03,WeatherDisplay:10.37,2013-11-01 05:31:00,
2013-11-01 01:34:00,67.3,66.7,29.67,SSE,153,11.7,13.8,98,0.03,-RA,,0.03,WeatherDisplay:10.37,2013-11-01 05:34:00,
2013-11-01 01:35:00,67.3,67.0,29.68,South,179,12.2,19.6,99,0.03,-RA,,0.03,WeatherDisplay:10.37,2013-11-01 05:35:00,
2013-11-01 01:36:00,67.1,66.8,29.68,South,169,8.7,17.3,99,0.03,-RA,,0.03,WeatherDisplay:10.37,2013-11-01 05:36:00,
2013-11-01 01:37:00,67.1,66.8,29.67,South,176,8.6,12.7,99,0.03,-RA,,0.03,WeatherDisplay:10.37,2013-11-01 05:37:00,
2013-11-01 01:39:00,67.0,66.7,29.67,South,171,11.5,17.3,99,0.04,-RA,,0.04,WeatherDisplay:10.37,2013-11-01 05:39:00,
2013-11-01 01:40:00,67.0,66.7,29.67,SE,140,7.5,15.0,99,0.04,-RA,,0.04,WeatherDisplay:10.37,2013-11-01 05:40:00,
2013-11-01 01:41:00,66.9,66.9,29.67,SSE,149,12.2,17.3,100,0.04,-RA,,0.05,WeatherDisplay:10.37,2013-11-01 05:41:00,
2013-11-01 01:42:00,67.0,66.7,29.67,SSE,148,11.3,16.0,99,0.05,-RA,,0.05,WeatherDisplay:10.37,2013-11-01 05:42:00,
2013-11-01 01:45:00,66.9,66.9,29.67,SSE,166,7.8,15.0,100,0.05,-RA,,0.05,WeatherDisplay:10.37,2013-11-01 05:45:00,
2013-11-01 01:46:00,66.9,66.9,29.67,South,185,10.2,15.0,100,0.05,-RA,,0.05,WeatherDisplay:10.37,2013-11-01 05:46:00,
2013-11-01 01:47:00,66.8,66.8,29.67,SSE,154,10.2,15.0,100,0.05,-RA,,0.05,WeatherDisplay:10.37,2013-11-01 05:47:00,
2013-11-01 01:50:00,66.8,66.8,29.67,South,172,9.7,17.3,100,0.05,-RA,,0.05,WeatherDisplay:10.37,2013-11-01 05:50:00,
2013-11-01 01:51:00,66.8,66.8,29.67,SSE,162,10.5,16.1,100,0.05,-RA,,0.05,WeatherDisplay:10.37,2013-11-01 05:51:00,
2013-11-01 01:52:00,66.8,66.8,29.67,SE,146,5.2,10.4,100,0.05,-RA,,0.05,WeatherDisplay:10.37,2013-11-01 05:52:00,
2013-11-01 01:53:00,66.8,66.8,29.67,SSE,168,8.7,19.0,100,0.05,-RA,,0.05,WeatherDisplay:10.37,2013-11-01 05:53:00,
2013-11-01 01:55:00,66.8,66.8,29.66,South,171,9.1,12.7,100,0.06,-RA,,0.06,WeatherDisplay:10.37,2013-11-01 05:55:00,
2013-11-01 01:56:00,66.8,66.8,29.66,South,169,7.8,15.0,100,0.06,-RA,,0.06,WeatherDisplay:10.37,2013-11-01 05:56:00,
2013-11-01 01:58:00,66.8,66.8,29.67,SSE,155,10.5,18.4,100,0.06,-RA,,0.06,WeatherDisplay:10.37,2013-11-01 05:58:00,
2013-11-01 01:59:00,66.8,66.8,29.67,SSE,151,11.6,19.6,100,0.06,-RA,,0.06,WeatherDisplay:10.37,2013-11-01 05:59:00,
2013-11-01 02:00:00,66.8,66.8,29.67,South,170,8.1,12.7,100,0.06,-RA,,0.07,WeatherDisplay:10.37,2013-11-01 06:00:00,
2013-11-01 02:01:00,66.7,66.7,29.67,SSE,158,8.3,10.4,100,0.07,-RA,,0.07,WeatherDisplay:10.37,2013-11-01 06:01:00,
2013-11-01 02:03:00,66.7,66.7,29.67,SSE,168,11.1,16.1,100,0.08,-RA,,0.08,WeatherDisplay:10.37,2013-11-01 06:03:00,
2013-11-01 02:04:00,66.7,66.7,29.67,SSE,157,8.3,19.6,100,0.08,-RA,,0.08,WeatherDisplay:10.37,2013-11-01 06:04:00,
2013-11-01 02:06:00,66.7,66.7,29.67,SSE,165,10.8,19.6,100,0.08,-RA,,0.08,WeatherDisplay:10.37,2013-11-01 06:06:00,
2013-11-01 02:07:00,66.7,66.7,29.67,South,171,7.9,17.3,100,0.08,-RA,,0.08,WeatherDisplay:10.37,2013-11-01 06:07:00,
2013-11-01 02:08:00,66.7,66.7,29.67,SSE,167,11.2,16.1,100,0.09,-RA,,0.09,WeatherDisplay:10.37,2013-11-01 06:08:00,
2013-11-01 02:09:00,66.6,66.6,29.67,SSE,155,11.0,12.7,100,0.09,-RA,,0.09,WeatherDisplay:10.37,2013-11-01 06:09:00,
2013-11-01 02:11:00,66.6,66.6,29.67,SSE,158,12.3,19.6,100,0.09,-RA,,0.09,WeatherDisplay:10.37,2013-11-01 06:11:00,
2013-11-01 02:12:00,66.6,66.6,29.67,SSE,167,12.9,23.0,100,0.10,-RA,,0.10,WeatherDisplay:10.37,2013-11-01 06:12:00,
2013-11-01 02:14:00,66.6,66.6,29.67,SSE,163,12.7,21.9,100,0.10,-RA,,0.10,WeatherDisplay:10.37,2013-11-01 06:14:00,
2013-11-01 02:16:00,66.6,66.6,29.67,SE,144,10.2,19.6,100,0.09,-RA,,0.10,WeatherDisplay:10.37,2013-11-01 06:16:00,
2013-11-01 02:17:00,66.6,66.6,29.67,SSE,160,8.8,11.5,100,0.09,-RA,,0.11,WeatherDisplay:10.37,2013-11-01 06:17:00,
2013-11-01 02:19:00,66.6,66.6,29.67,SSE,165,10.6,16.1,100,0.10,-RA,,0.11,WeatherDisplay:10.37,2013-11-01 06:19:00,
2013-11-01 02:20:00,66.6,66.6,29.67,SSE,168,8.3,16.1,100,0.10,-RA,,0.11,WeatherDisplay:10.37,2013-11-01 06:20:00,
2013-11-01 02:21:00,66.6,66.6,29.67,SSE,163,9.3,17.3,100,0.10,-RA,,0.11,WeatherDisplay:10.37,2013-11-01 06:21:00,
2013-11-01 02:22:00,66.6,66.6,29.67,SSE,147,7.5,10.4,100,0.10,-RA,,0.11,WeatherDisplay:10.37,2013-11-01 06:22:00,
2013-11-01 02:24:00,66.5,66.5,29.67,SE,146,8.3,11.5,100,0.11,-RA,,0.12,WeatherDisplay:10.37,2013-11-01 06:24:00,
2013-11-01 02:25:00,66.5,66.5,29.67,SSE,160,6.1,11.5,100,0.11,-RA,,0.12,WeatherDisplay:10.37,2013-11-01 06:25:00,
2013-11-01 02:26:00,66.5,66.5,29.67,SSE,168,7.6,10.4,100,0.12,-RA,,0.14,WeatherDisplay:10.37,2013-11-01 06:26:00,
2013-11-01 02:27:00,66.5,66.5,29.67,SSE,156,7.7,12.7,100,0.13,-RA,,0.14,WeatherDisplay:10.37,2013-11-01 06:27:00,
2013-11-01 02:29:00,66.5,66.5,29.67,SSE,147,11.3,17.3,100,0.13,-RA,,0.15,WeatherDisplay:10.37,2013-11-01 06:29:00,
2013-11-01 02:30:00,66.5,66.5,29.67,SE,135,12.7,18.4,100,0.13,-RA,,0.15,WeatherDisplay:10.37,2013-11-01 06:30:00,
2013-11-01 02:31:00,66.5,66.5,29.67,SE,127,12.0,18.4,100,0.14,-RA,,0.16,WeatherDisplay:10.37,2013-11-01 06:31:00,
2013-11-01 02:32:00,66.5,66.5,29.67,South,170,9.6,15.0,100,0.13,-RA,,0.16,WeatherDisplay:10.37,2013-11-01 06:32:00,
2013-11-01 02:33:00,66.5,66.5,29.67,SE,142,7.2,15.0,100,0.13,-RA,,0.16,WeatherDisplay:10.37,2013-11-01 06:33:00,
2013-11-01 02:34:00,66.4,66.4,29.67,SSE,164,7.5,11.5,100,0.13,-RA,,0.16,WeatherDisplay:10.37,2013-11-01 06:34:00,
2013-11-01 02:35:00,66.5,66.5,29.67,SE,145,8.5,11.5,100,0.13,-RA,,0.16,WeatherDisplay:10.37,2013-11-01 06:35:00,
2013-11-01 02:36:00,66.5,66.5,29.67,SSE,151,8.6,11.5,100,0.13,-RA,,0.16,WeatherDisplay:10.37,2013-11-01 06:36:00,
2013-11-01 02:37:00,66.4,66.4,29.67,SE,145,6.1,9.2,100,0.13,-RA,,0.16,WeatherDisplay:10.37,2013-11-01 06:37:00,
2013-11-01 02:38:00,66.4,66.4,29.67,SSE,161,10.9,15.0,100,0.13,-RA,,0.17,WeatherDisplay:10.37,2013-11-01 06:38:00,
2013-11-01 02:40:00,66.4,66.4,29.67,SE,145,6.2,15.0,100,0.13,-RA,,0.17,WeatherDisplay:10.37,2013-11-01 06:40:00,
2013-11-01 02:41:00,66.4,66.4,29.67,SE,145,5.6,11.5,100,0.13,-RA,,0.17,WeatherDisplay:10.37,2013-11-01 06:41:00,
2013-11-01 02:42:00,66.4,66.4,29.67,SE,143,6.3,18.4,100,0.12,-RA,,0.17,WeatherDisplay:10.37,2013-11-01 06:42:00,
2013-11-01 02:43:00,66.4,66.4,29.67,SE,139,6.4,10.4,100,0.12,-RA,,0.17,WeatherDisplay:10.37,2013-11-01 06:43:00,
2013-11-01 02:45:00,66.4,66.4,29.66,SE,142,8.3,14.0,100,0.12,-RA,,0.17,WeatherDisplay:10.37,2013-11-01 06:45:00,
2013-11-01 02:46:00,66.4,66.4,29.66,SE,143,10.5,13.8,100,0.12,-RA,,0.17,WeatherDisplay:10.37,2013-11-01 06:46:00,
2013-11-01 02:47:00,66.4,66.4,29.66,SSE,151,11.7,16.1,100,0.12,-RA,,0.17,WeatherDisplay:10.37,2013-11-01 06:47:00,
2013-11-01 02:48:00,66.4,66.4,29.66,SSE,153,8.9,17.3,100,0.12,-RA,,0.17,WeatherDisplay:10.37,2013-11-01 06:48:00,
2013-11-01 02:50:00,66.4,66.4,29.66,SSE,153,13.3,19.6,100,0.12,-RA,,0.17,WeatherDisplay:10.37,2013-11-01 06:50:00,
2013-11-01 02:51:00,66.4,66.4,29.66,South,187,12.3,17.3,100,0.12,-RA,,0.17,WeatherDisplay:10.37,2013-11-01 06:51:00,
2013-11-01 02:52:00,66.4,66.4,29.66,SE,134,9.1,13.8,100,0.12,-RA,,0.17,WeatherDisplay:10.37,2013-11-01 06:52:00,
2013-11-01 02:53:00,66.4,66.4,29.66,SE,139,9.8,13.8,100,0.12,-RA,,0.17,WeatherDisplay:10.37,2013-11-01 06:53:00,
2013-11-01 02:55:00,66.4,66.4,29.66,SSE,147,8.7,11.5,100,0.11,-RA,,0.17,WeatherDisplay:10.37,2013-11-01 06:55:00,
2013-11-01 02:56:00,66.4,66.4,29.66,SSE,151,8.0,11.5,100,0.11,-RA,,0.17,WeatherDisplay:10.37,2013-11-01 06:56:00,
2013-11-01 02:58:00,66.4,66.4,29.66,SE,146,14.3,20.7,100,0.11,-RA,,0.17,WeatherDisplay:10.37,2013-11-01 06:58:00,
2013-11-01 03:01:00,66.4,66.4,29.66,SE,145,7.2,11.5,100,0.10,-RA,,0.17,WeatherDisplay:10.37,2013-11-01 07:01:00,
2013-11-01 03:02:00,66.4,66.4,29.66,South,187,8.5,11.5,100,0.10,-RA,,0.17,WeatherDisplay:10.37,2013-11-01 07:02:00,
2013-11-01 03:03:00,66.4,66.4,29.66,SSE,155,10.3,17.0,100,0.09,-RA,,0.17,WeatherDisplay:10.37,2013-11-01 07:03:00,
2013-11-01 03:04:00,66.3,66.3,29.66,South,186,12.1,12.1,100,0.09,-RA,,0.17,WeatherDisplay:10.37,2013-11-01 07:04:00,
2013-11-01 03:06:00,66.3,66.3,29.66,SE,144,9.0,12.7,100,0.09,-RA,,0.17,WeatherDisplay:10.37,2013-11-01 07:06:00,
2013-11-01 03:07:00,66.3,66.3,29.66,South,179,9.8,15.0,100,0.09,-RA,,0.17,WeatherDisplay:10.37,2013-11-01 07:07:00,
2013-11-01 03:08:00,66.3,66.3,29.65,SSE,152,8.9,17.3,100,0.08,-RA,,0.17,WeatherDisplay:10.37,2013-11-01 07:08:00,
2013-11-01 03:09:00,66.3,66.3,29.65,SE,140,8.4,17.3,100,0.08,-RA,,0.17,WeatherDisplay:10.37,2013-11-01 07:09:00,
2013-11-01 03:11:00,66.3,66.3,29.65,South,174,7.0,9.2,100,0.08,-RA,,0.17,WeatherDisplay:10.37,2013-11-01 07:11:00,
2013-11-01 03:12:00,66.3,66.3,29.65,SSE,147,7.9,11.5,100,0.07,-RA,,0.17,WeatherDisplay:10.37,2013-11-01 07:12:00,
2013-11-01 03:14:00,66.3,66.3,29.65,SSE,149,9.0,10.4,100,0.07,-RA,,0.17,WeatherDisplay:10.37,2013-11-01 07:14:00,
2013-11-01 03:15:00,66.3,66.3,29.65,SE,143,7.5,17.0,100,0.07,-RA,,0.17,WeatherDisplay:10.37,2013-11-01 07:15:00,
2013-11-01 03:16:00,66.3,66.3,29.65,SE,133,10.0,18.4,100,0.07,-RA,,0.17,WeatherDisplay:10.37,2013-11-01 07:16:00,
2013-11-01 03:17:00,66.3,66.3,29.65,SSE,161,8.7,12.7,100,0.07,-RA,,0.17,WeatherDisplay:10.37,2013-11-01 07:17:00,
2013-11-01 03:18:00,66.3,66.3,29.65,SE,141,9.1,13.8,100,0.06,-RA,,0.17,WeatherDisplay:10.37,2013-11-01 07:18:00,
2013-11-01 03:19:00,66.2,66.2,29.65,SE,144,8.0,13.8,100,0.06,-RA,,0.17,WeatherDisplay:10.37,2013-11-01 07:19:00,
2013-11-01 03:20:00,66.3,66.3,29.65,SSE,164,5.6,10.4,100,0.06,-RA,,0.17,WeatherDisplay:10.37,2013-11-01 07:20:00,
2013-11-01 03:21:00,66.3,66.3,29.65,SSE,158,9.7,18.4,100,0.06,-RA,,0.17,WeatherDisplay:10.37,2013-11-01 07:21:00,
2013-11-01 03:23:00,66.3,66.3,29.65,SSE,160,10.7,16.1,100,0.06,-RA,,0.17,WeatherDisplay:10.37,2013-11-01 07:23:00,
2013-11-01 03:24:00,66.3,66.3,29.65,SSE,157,7.3,16.1,100,0.05,-RA,,0.17,WeatherDisplay:10.37,2013-11-01 07:24:00,
2013-11-01 03:25:00,66.3,66.3,29.65,SE,139,8.8,12.7,100,0.04,-RA,,0.17,WeatherDisplay:10.37,2013-11-01 07:25:00,
2013-11-01 03:26:00,66.3,66.3,29.65,SSE,167,13.8,25.3,100,0.04,-RA,,0.17,WeatherDisplay:10.37,2013-11-01 07:26:00,
2013-11-01 03:29:00,66.3,66.3,29.65,SSE,152,11.6,19.6,100,0.03,-RA,,0.17,WeatherDisplay:10.37,2013-11-01 07:29:00,
2013-11-01 03:30:00,66.2,66.2,29.65,SSE,164,12.4,23.0,100,0.02,-RA,,0.17,WeatherDisplay:10.37,2013-11-01 07:30:00,
2013-11-01 03:31:00,66.2,66.2,29.65,SSE,164,8.3,17.3,100,0.01,-RA,,0.17,WeatherDisplay:10.37,2013-11-01 07:31:00,
2013-11-01 03:34:00,66.2,66.2,29.65,South,170,7.0,18.4,100,0.01,-RA,,0.17,WeatherDisplay:10.37,2013-11-01 07:34:00,
2013-11-01 03:35:00,66.2,66.2,29.66,SSE,151,10.8,17.3,100,0.01,-RA,,0.17,WeatherDisplay:10.37,2013-11-01 07:35:00,
2013-11-01 03:37:00,66.2,66.2,29.65,SE,137,11.5,16.1,100,0.01,-RA,,0.17,WeatherDisplay:10.37,2013-11-01 07:37:00,
2013-11-01 03:39:00,66.2,66.2,29.66,SSE,156,10.3,18.4,100,0.00,-RA,,0.17,WeatherDisplay:10.37,2013-11-01 07:39:00,
2013-11-01 03:40:00,66.2,66.2,29.66,South,177,8.7,18.4,100,0.00,-RA,,0.17,WeatherDisplay:10.37,2013-11-01 07:40:00,
2013-11-01 03:43:00,66.2,66.2,29.66,SE,138,16.2,27.6,100,0.00,-RA,,0.17,WeatherDisplay:10.37,2013-11-01 07:43:00,
2013-11-01 03:44:00,66.2,66.2,29.66,SE,140,11.9,21.9,100,0.01,-RA,,0.18,WeatherDisplay:10.37,2013-11-01 07:44:00,
2013-11-01 03:45:00,66.2,66.2,29.66,SSE,159,8.5,21.9,100,0.01,-RA,,0.18,WeatherDisplay:10.37,2013-11-01 07:45:00,
2013-11-01 03:48:00,66.2,66.2,29.66,SSE,166,9.6,13.8,100,0.01,-RA,,0.18,WeatherDisplay:10.37,2013-11-01 07:48:00,
2013-11-01 03:49:00,66.2,66.2,29.66,SSE,159,12.1,16.1,100,0.01,-RA,,0.19,WeatherDisplay:10.37,2013-11-01 07:49:00,
2013-11-01 03:50:00,66.1,66.1,29.66,SSE,152,10.9,16.1,100,0.01,-RA,,0.19,WeatherDisplay:10.37,2013-11-01 07:50:00,
2013-11-01 03:51:00,66.1,66.1,29.66,SSE,160,9.2,20.7,100,0.02,-RA,,0.19,WeatherDisplay:10.37,2013-11-01 07:51:00,
2013-11-01 03:54:00,66.1,66.1,29.66,SSE,157,15.8,25.3,100,0.02,-RA,,0.19,WeatherDisplay:10.37,2013-11-01 07:54:00,
2013-11-01 03:55:00,66.1,66.1,29.66,South,178,14.7,25.3,100,0.02,-RA,,0.19,WeatherDisplay:10.37,2013-11-01 07:55:00,
2013-11-01 03:56:00,66.1,66.1,29.66,SSE,152,14.9,23.0,100,0.02,-RA,,0.19,WeatherDisplay:10.37,2013-11-01 07:56:00,
2013-11-01 03:59:00,66.0,66.0,29.67,South,172,10.9,16.1,100,0.02,-RA,,0.19,WeatherDisplay:10.37,2013-11-01 07:59:00,
2013-11-01 04:00:00,66.0,66.0,29.67,SSE,158,9.7,16.1,100,0.02,-RA,,0.19,WeatherDisplay:10.37,2013-11-01 08:00:00,
2013-11-01 04:01:00,66.0,66.0,29.67,SSE,167,10.9,16.1,100,0.03,-RA,,0.20,WeatherDisplay:10.37,2013-11-01 08:01:00,
2013-11-01 04:04:00,65.9,65.9,29.67,South,173,8.5,17.3,100,0.04,-RA,,0.22,WeatherDisplay:10.37,2013-11-01 08:04:00,
2013-11-01 04:05:00,65.9,65.9,29.68,SSE,163,8.2,17.3,100,0.04,-RA,,0.22,WeatherDisplay:10.37,2013-11-01 08:05:00,
2013-11-01 04:06:00,65.8,65.8,29.68,South,184,10.8,15.0,100,0.06,-RA,,0.23,WeatherDisplay:10.37,2013-11-01 08:06:00,
2013-11-01 04:09:00,65.8,65.8,29.68,South,184,7.2,20.7,100,0.08,-RA,,0.26,WeatherDisplay:10.37,2013-11-01 08:09:00,
2013-11-01 04:10:00,65.8,65.8,29.68,South,171,7.2,15.0,100,0.09,-RA,,0.26,WeatherDisplay:10.37,2013-11-01 08:10:00,
2013-11-01 04:11:00,65.8,65.8,29.68,South,176,7.7,15.0,100,0.10,-RA,,0.27,WeatherDisplay:10.37,2013-11-01 08:11:00,
2013-11-01 04:12:00,65.8,65.8,29.68,SSE,158,7.5,15.0,100,0.10,-RA,,0.28,WeatherDisplay:10.37,2013-11-01 08:12:00,
2013-11-01 04:15:00,65.7,65.7,29.68,South,178,11.4,18.4,100,0.14,-RA,,0.31,WeatherDisplay:10.37,2013-11-01 08:15:00,
2013-11-01 04:17:00,65.6,65.6,29.68,South,182,12.1,12.7,100,0.15,-RA,,0.32,WeatherDisplay:10.37,2013-11-01 08:17:00,
2013-11-01 04:20:00,65.5,65.5,29.68,South,170,9.7,18.4,100,0.18,-RA,,0.35,WeatherDisplay:10.37,2013-11-01 08:20:00,
2013-11-01 04:21:00,65.4,65.4,29.68,SSE,150,11.2,18.4,100,0.19,-RA,,0.36,WeatherDisplay:10.37,2013-11-01 08:21:00,
2013-11-01 04:22:00,65.3,65.3,29.68,SW,216,10.9,17.3,100,0.19,-RA,,0.36,WeatherDisplay:10.37,2013-11-01 08:22:00,
2013-11-01 04:23:00,65.2,65.2,29.68,SW,214,11.7,18.4,100,0.20,-RA,,0.37,WeatherDisplay:10.37,2013-11-01 08:23:00,
2013-11-01 04:25:00,65.1,65.1,29.68,South,181,10.9,16.1,100,0.20,-RA,,0.37,WeatherDisplay:10.37,2013-11-01 08:25:00,
2013-11-01 04:26:00,65.0,65.0,29.68,South,190,8.3,13.0,100,0.21,-RA,,0.38,WeatherDisplay:10.37,2013-11-01 08:26:00,
2013-11-01 04:27:00,65.0,65.0,29.68,South,183,9.2,13.0,100,0.21,-RA,,0.38,WeatherDisplay:10.37,2013-11-01 08:27:00,
2013-11-01 04:28:00,64.9,64.9,29.68,South,183,11.3,16.1,100,0.21,-RA,,0.38,WeatherDisplay:10.37,2013-11-01 08:28:00,
2013-11-01 04:30:00,64.8,64.8,29.68,South,172,6.4,11.5,100,0.21,-RA,,0.38,WeatherDisplay:10.37,2013-11-01 08:30:00,
2013-11-01 04:31:00,64.8,64.8,29.68,SSW,207,8.2,11.5,100,0.21, +RA,,0.38,WeatherDisplay:10.37,2013-11-01 08:31:00,
2013-11-01 04:32:00,64.7,64.7,29.68,South,177,9.4,13.8,100,0.21, +RA,,0.38,WeatherDisplay:10.37,2013-11-01 08:32:00,
2013-11-01 04:33:00,64.7,64.7,29.68,SSE,158,9.2,13.8,100,0.21, +RA,,0.38,WeatherDisplay:10.37,2013-11-01 08:33:00,
2013-11-01 04:34:00,64.7,64.7,29.69,South,185,6.2,11.0,100,0.21, +RA,,0.38,WeatherDisplay:10.37,2013-11-01 08:34:00,
2013-11-01 04:35:00,64.7,64.7,29.69,SSE,160,6.2,11.5,100,0.21, +RA,,0.38,WeatherDisplay:10.37,2013-11-01 08:35:00,
2013-11-01 04:36:00,64.6,64.6,29.69,SE,145,3.5,11.5,100,0.21, +RA,,0.38,WeatherDisplay:10.37,2013-11-01 08:36:00,
2013-11-01 04:37:00,64.6,64.6,29.69,SSE,151,5.8,10.0,100,0.21, +RA,,0.39,WeatherDisplay:10.37,2013-11-01 08:37:00,
2013-11-01 04:38:00,64.6,64.6,29.69,South,169,6.7,8.0,100,0.21, +RA,,0.39,WeatherDisplay:10.37,2013-11-01 08:38:00,
2013-11-01 04:39:00,64.6,64.6,29.69,SSE,160,6.9,10.4,100,0.22, +RA,,0.39,WeatherDisplay:10.37,2013-11-01 08:39:00,
2013-11-01 04:40:00,64.5,64.5,29.69,SSE,162,5.5,13.8,100,0.22, +RA,,0.39,WeatherDisplay:10.37,2013-11-01 08:40:00,
2013-11-01 04:41:00,64.5,64.5,29.69,SE,140,7.8,13.8,100,0.22, +RA,,0.39,WeatherDisplay:10.37,2013-11-01 08:41:00,
2013-11-01 04:43:00,64.5,64.5,29.69,South,185,6.8,11.5,100,0.22, +RA,,0.39,WeatherDisplay:10.37,2013-11-01 08:43:00,
2013-11-01 04:44:00,64.4,64.4,29.69,South,179,5.4,9.2,100,0.21, +RA,,0.39,WeatherDisplay:10.37,2013-11-01 08:44:00,
2013-11-01 04:45:00,64.4,64.4,29.69,South,182,6.9,11.0,100,0.21, +RA,,0.39,WeatherDisplay:10.37,2013-11-01 08:45:00,
2013-11-01 04:47:00,64.4,64.4,29.69,South,180,4.7,9.0,100,0.21, +RA,,0.39,WeatherDisplay:10.37,2013-11-01 08:47:00,
2013-11-01 04:48:00,64.3,64.3,29.69,South,178,5.9,10.4,100,0.21, +RA,,0.39,WeatherDisplay:10.37,2013-11-01 08:48:00,
2013-11-01 04:49:00,64.3,64.3,29.69,SSE,168,1.8,5.8,100,0.21, +RA,,0.39,WeatherDisplay:10.37,2013-11-01 08:49:00,
2013-11-01 04:50:00,64.3,64.3,29.69,South,182,2.0,14.0,100,0.00, +RA,,0.39,WeatherDisplay:10.37,2013-11-01 08:50:00,
2013-11-01 04:52:00,64.3,64.3,29.69,SSE,153,2.6,4.6,100,0.20, +RA,,0.39,WeatherDisplay:10.37,2013-11-01 08:52:00,
2013-11-01 04:53:00,64.3,64.3,29.69,SSW,206,2.8,7.0,100,0.20, +RA,,0.39,WeatherDisplay:10.37,2013-11-01 08:53:00,
2013-11-01 04:54:00,64.3,64.3,29.69,SSE,154,4.7,6.9,100,0.20, +RA,,0.39,WeatherDisplay:10.37,2013-11-01 08:54:00,
2013-11-01 04:55:00,64.3,64.3,29.69,South,185,2.4,9.2,100,0.20, +RA,,0.39,WeatherDisplay:10.37,2013-11-01 08:55:00,
2013-11-01 04:56:00,64.3,64.3,29.69,SSE,166,7.2,9.2,100,0.20, +RA,,0.39,WeatherDisplay:10.37,2013-11-01 08:56:00,
2013-11-01 04:57:00,64.3,64.3,29.69,South,183,3.5,5.8,100,0.20, +RA,,0.39,WeatherDisplay:10.37,2013-11-01 08:57:00,
2013-11-01 04:58:00,64.2,64.2,29.69,SSW,204,4.0,6.9,100,0.20, +RA,,0.39,WeatherDisplay:10.37,2013-11-01 08:58:00,
2013-11-01 04:59:00,64.2,64.2,29.69,SSE,155,0.5,4.6,100,0.20, +RA,,0.39,WeatherDisplay:10.37,2013-11-01 08:59:00,
2013-11-01 05:00:00,64.2,64.2,29.69,SSE,168,5.1,8.0,100,0.19, +RA,,0.39,WeatherDisplay:10.37,2013-11-01 09:00:00,
2013-11-01 05:01:00,64.2,64.2,29.69,SE,143,4.9,9.2,100,0.19,-RA,,0.39,WeatherDisplay:10.37,2013-11-01 09:01:00,
2013-11-01 05:02:00,64.2,64.2,29.69,SE,146,5.8,10.4,100,0.19,-RA,,0.39,WeatherDisplay:10.37,2013-11-01 09:02:00,
2013-11-01 05:03:00,64.2,64.2,29.69,South,172,5.4,9.2,100,0.19,-RA,,0.39,WeatherDisplay:10.37,2013-11-01 09:03:00,
2013-11-01 05:04:00,64.1,64.1,29.69,SSW,196,3.1,8.1,100,0.18,-RA,,0.39,WeatherDisplay:10.37,2013-11-01 09:04:00,
2013-11-01 05:06:00,64.1,64.1,29.69,SSE,149,3.6,11.5,100,0.16,-RA,,0.39,WeatherDisplay:10.37,2013-11-01 09:06:00,
2013-11-01 05:07:00,64.1,64.1,29.69,SSE,147,4.4,11.5,100,0.16,-RA,,0.39,WeatherDisplay:10.37,2013-11-01 09:07:00,
2013-11-01 05:08:00,64.1,64.1,29.69,SSE,154,3.4,5.8,100,0.14,-RA,,0.39,WeatherDisplay:10.37,2013-11-01 09:08:00,
2013-11-01 05:10:00,64.1,64.1,29.70,SE,144,3.3,7.0,100,0.13,-RA,,0.39,WeatherDisplay:10.37,2013-11-01 09:10:00,
2013-11-01 05:11:00,64.1,64.1,29.70,SSE,150,6.9,13.8,100,0.12,-RA,,0.39,WeatherDisplay:10.37,2013-11-01 09:11:00,
2013-11-01 05:12:00,64.1,64.1,29.70,SE,145,5.9,13.8,100,0.12,-RA,,0.39,WeatherDisplay:10.37,2013-11-01 09:12:00,
2013-11-01 05:13:00,64.1,64.1,29.70,South,182,6.2,10.4,100,0.10,-RA,,0.39,WeatherDisplay:10.37,2013-11-01 09:13:00,
2013-11-01 05:14:00,64.0,64.0,29.70,South,176,5.3,9.2,100,0.09,-RA,,0.39,WeatherDisplay:10.37,2013-11-01 09:14:00,
2013-11-01 05:15:00,64.0,64.0,29.70,SE,140,3.7,8.1,100,0.08,-RA,,0.39,WeatherDisplay:10.37,2013-11-01 09:15:00,
2013-11-01 05:16:00,64.0,64.0,29.70,SE,132,3.8,5.8,100,0.07,-RA,,0.39,WeatherDisplay:10.37,2013-11-01 09:16:00,
2013-11-01 05:17:00,64.0,64.0,29.70,SE,132,3.6,5.8,100,0.07,-RA,,0.39,WeatherDisplay:10.37,2013-11-01 09:17:00,
2013-11-01 05:18:00,64.0,64.0,29.70,South,181,2.6,5.8,100,0.06,-RA,,0.39,WeatherDisplay:10.37,2013-11-01 09:18:00,
2013-11-01 05:19:00,64.0,64.0,29.70,SSE,147,1.8,5.0,100,0.05,-RA,,0.39,WeatherDisplay:10.37,2013-11-01 09:19:00,
2013-11-01 05:20:00,64.0,64.0,29.70,SSE,160,3.7,6.9,100,0.04,-RA,,0.39,WeatherDisplay:10.37,2013-11-01 09:20:00,
2013-11-01 05:22:00,64.1,64.1,29.70,SE,143,4.3,6.9,100,0.03,-RA,,0.39,WeatherDisplay:10.37,2013-11-01 09:22:00,
2013-11-01 05:23:00,64.0,64.0,29.70,SSE,156,0.7,4.6,100,0.02,-RA,,0.39,WeatherDisplay:10.37,2013-11-01 09:23:00,
2013-11-01 05:24:00,64.0,64.0,29.70,South,172,3.9,6.9,100,0.02,-RA,,0.39,WeatherDisplay:10.37,2013-11-01 09:24:00,
2013-11-01 05:26:00,64.0,64.0,29.70,SSE,155,1.9,4.6,100,0.01,-RA,,0.39,WeatherDisplay:10.37,2013-11-01 09:26:00,
2013-11-01 05:27:00,64.0,64.0,29.70,SSE,151,1.3,5.0,100,0.01,-RA,,0.39,WeatherDisplay:10.37,2013-11-01 09:27:00,
2013-11-01 05:28:00,64.0,64.0,29.70,SE,145,3.3,5.0,100,0.01,-RA,,0.39,WeatherDisplay:10.37,2013-11-01 09:28:00,
2013-11-01 05:29:00,64.0,64.0,29.71,SE,144,3.3,6.0,100,0.01,-RA,,0.39,WeatherDisplay:10.37,2013-11-01 09:29:00,
2013-11-01 05:31:00,64.0,64.0,29.71,SSE,152,3.4,6.0,100,0.01,-RA,,0.39,WeatherDisplay:10.37,2013-11-01 09:31:00,
2013-11-01 05:32:00,64.0,64.0,29.70,SSE,161,3.4,5.8,100,0.01,-RA,,0.39,WeatherDisplay:10.37,2013-11-01 09:32:00,
2013-11-01 05:33:00,64.0,64.0,29.70,SSE,161,1.7,3.5,100,0.01,-RA,,0.39,WeatherDisplay:10.37,2013-11-01 09:33:00,
2013-11-01 05:34:00,64.0,64.0,29.70,SE,142,3.4,6.0,100,0.01,-RA,,0.39,WeatherDisplay:10.37,2013-11-01 09:34:00,
2013-11-01 05:35:00,64.0,64.0,29.70,SSE,149,4.6,6.9,100,0.01,-RA,,0.39,WeatherDisplay:10.37,2013-11-01 09:35:00,
2013-11-01 05:37:00,63.9,63.9,29.71,SE,144,1.7,4.6,100,0.01,-RA,,0.39,WeatherDisplay:10.37,2013-11-01 09:37:00,
2013-11-01 05:38:00,63.9,63.9,29.71,SE,144,0.0,0.0,100,0.00,-RA,,0.39,WeatherDisplay:10.37,2013-11-01 09:38:00,
2013-11-01 05:40:00,63.9,63.9,29.71,SSE,147,0.7,0.0,100,0.00,-RA,,0.39,WeatherDisplay:10.37,2013-11-01 09:40:00,
2013-11-01 05:42:00,64.0,64.0,29.71,SE,134,0.6,5.8,100,0.00,-RA,,0.39,WeatherDisplay:10.37,2013-11-01 09:42:00,
2013-11-01 05:43:00,63.9,63.9,29.70,South,171,0.6,4.0,100,0.00,-RA,,0.39,WeatherDisplay:10.37,2013-11-01 09:43:00,
2013-11-01 05:45:00,64.0,64.0,29.70,SE,137,0.6,3.5,100,0.00,-RA,,0.39,WeatherDisplay:10.37,2013-11-01 09:45:00,
2013-11-01 05:48:00,63.9,63.9,29.71,SSE,149,0.3,3.0,100,0.00,-RA,,0.39,WeatherDisplay:10.37,2013-11-01 09:48:00,
2013-11-01 05:50:00,63.9,63.9,29.71,SE,132,0.2,3.5,100,0.00,-RA,,0.39,WeatherDisplay:10.37,2013-11-01 09:50:00,
2013-11-01 05:51:00,63.9,63.9,29.71,SSE,150,1.0,3.5,100,0.00,-RA,,0.39,WeatherDisplay:10.37,2013-11-01 09:51:00,
2013-11-01 05:53:00,63.9,63.9,29.72,SE,137,0.0,3.5,100,0.00,-RA,,0.39,WeatherDisplay:10.37,2013-11-01 09:53:00,
2013-11-01 05:55:00,63.9,63.9,29.72,SSE,150,0.4,3.5,100,0.00,-RA,,0.39,WeatherDisplay:10.37,2013-11-01 09:55:00,
2013-11-01 05:56:00,63.9,63.9,29.72,SSE,147,0.7,0.0,100,0.00,-RA,,0.39,WeatherDisplay:10.37,2013-11-01 09:56:00,
2013-11-01 05:58:00,63.9,63.9,29.72,SE,130,1.2,3.5,100,0.00,-RA,,0.39,WeatherDisplay:10.37,2013-11-01 09:58:00,
2013-11-01 05:59:00,63.9,63.9,29.72,SE,140,0.2,3.5,100,0.00,-RA,,0.39,WeatherDisplay:10.37,2013-11-01 09:59:00,
2013-11-01 06:00:00,63.8,63.8,29.72,SE,141,0.6,3.5,100,0.00,-RA,,0.39,WeatherDisplay:10.37,2013-11-01 10:00:00,
2013-11-01 06:01:00,63.8,63.8,29.72,SE,140,0.0,2.3,100,0.00,OVC,,0.39,WeatherDisplay:10.37,2013-11-01 10:01:00,
2013-11-01 06:04:00,63.7,63.7,29.73,SSE,150,0.7,3.5,100,0.00,OVC,,0.39,WeatherDisplay:10.37,2013-11-01 10:04:00,
2013-11-01 06:05:00,63.7,63.7,29.73,SSE,168,0.8,1.1,100,0.00,OVC,,0.39,WeatherDisplay:10.37,2013-11-01 10:05:00,
2013-11-01 06:06:00,63.7,63.7,29.73,SSE,164,0.0,3.5,100,0.00,OVC,,0.39,WeatherDisplay:10.37,2013-11-01 10:06:00,
2013-11-01 06:09:00,63.6,63.6,29.73,SSW,193,1.1,3.5,100,0.00,OVC,,0.39,WeatherDisplay:10.37,2013-11-01 10:09:00,
2013-11-01 06:10:00,63.6,63.6,29.73,South,190,0.6,3.5,100,0.00,OVC,,0.39,WeatherDisplay:10.37,2013-11-01 10:10:00,
2013-11-01 06:11:00,63.6,63.6,29.73,SSE,154,1.0,3.5,100,0.00,OVC,,0.39,WeatherDisplay:10.37,2013-11-01 10:11:00,
2013-11-01 06:14:00,63.5,63.5,29.74,SE,144,1.1,4.6,100,0.00,OVC,,0.39,WeatherDisplay:10.37,2013-11-01 10:14:00,
2013-11-01 06:15:00,63.5,63.5,29.74,SSE,152,1.0,3.5,100,0.00,OVC,,0.39,WeatherDisplay:10.37,2013-11-01 10:15:00,
2013-11-01 06:16:00,63.5,63.5,29.73,SSE,151,0.0,3.5,100,0.00,OVC,,0.39,WeatherDisplay:10.37,2013-11-01 10:16:00,
2013-11-01 06:17:00,63.5,63.5,29.74,SSE,150,0.4,3.5,100,0.00,OVC,,0.39,WeatherDisplay:10.37,2013-11-01 10:17:00,
2013-11-01 06:19:00,63.5,63.5,29.74,SE,144,2.2,3.5,100,0.00,OVC,,0.39,WeatherDisplay:10.37,2013-11-01 10:19:00,
2013-11-01 06:20:00,63.5,63.5,29.74,SE,144,0.8,3.5,100,0.00,OVC,,0.39,WeatherDisplay:10.37,2013-11-01 10:20:00,
2013-11-01 06:21:00,63.5,63.5,29.74,SE,146,0.7,2.0,100,0.00,OVC,,0.39,WeatherDisplay:10.37,2013-11-01 10:21:00,
2013-11-01 06:22:00,63.5,63.5,29.74,SE,146,1.2,3.5,100,0.00,OVC,,0.39,WeatherDisplay:10.37,2013-11-01 10:22:00,
2013-11-01 06:24:00,63.4,63.4,29.74,SE,139,2.0,3.0,100,0.00,OVC,,0.39,WeatherDisplay:10.37,2013-11-01 10:24:00,
2013-11-01 06:25:00,63.4,63.4,29.74,SE,135,2.4,5.0,100,0.00,OVC,,0.39,WeatherDisplay:10.37,2013-11-01 10:25:00,
2013-11-01 06:26:00,63.4,63.4,29.74,SSE,162,2.1,5.8,100,0.00,OVC,,0.39,WeatherDisplay:10.37,2013-11-01 10:26:00,
2013-11-01 06:27:00,63.4,63.4,29.74,SE,129,1.8,3.5,100,0.00,OVC,,0.39,WeatherDisplay:10.37,2013-11-01 10:27:00,
2013-11-01 06:28:00,63.4,63.4,29.74,SE,126,0.8,4.6,100,0.00,OVC,,0.39,WeatherDisplay:10.37,2013-11-01 10:28:00,
2013-11-01 06:30:00,63.3,63.3,29.74,SE,135,0.0,1.1,100,0.00,OVC,,0.39,WeatherDisplay:10.37,2013-11-01 10:30:00,
2013-11-01 06:31:00,63.3,63.3,29.74,SE,141,0.1,3.5,100,0.00,OVC,,0.39,WeatherDisplay:10.37,2013-11-01 10:31:00,
2013-11-01 06:32:00,63.3,63.3,29.74,SE,141,0.0,0.0,100,0.00,OVC,,0.39,WeatherDisplay:10.37,2013-11-01 10:32:00,
2013-11-01 06:34:00,63.2,63.2,29.74,SE,144,1.8,3.5,100,0.00,OVC,,0.39,WeatherDisplay:10.37,2013-11-01 10:34:00,
2013-11-01 06:35:00,63.2,63.2,29.74,SE,143,0.0,3.5,100,0.00,OVC,,0.39,WeatherDisplay:10.37,2013-11-01 10:35:00,
2013-11-01 06:36:00,63.2,63.2,29.74,SE,143,0.0,0.0,100,0.00,OVC,,0.39,WeatherDisplay:10.37,2013-11-01 10:36:00,
2013-11-01 06:37:00,63.2,63.2,29.74,SE,144,1.6,3.5,100,0.00,OVC,,0.39,WeatherDisplay:10.37,2013-11-01 10:37:00,
2013-11-01 06:38:00,63.2,63.2,29.74,SSE,148,1.1,3.5,100,0.00,OVC,,0.39,WeatherDisplay:10.37,2013-11-01 10:38:00,
2013-11-01 06:40:00,63.1,63.1,29.74,SE,138,0.0,3.5,100,0.00,OVC,,0.39,WeatherDisplay:10.37,2013-11-01 10:40:00,
2013-11-01 06:41:00,63.1,63.1,29.74,SE,138,0.0,0.0,100,0.00,OVC,,0.39,WeatherDisplay:10.37,2013-11-01 10:41:00,
2013-11-01 06:42:00,63.1,63.1,29.74,SE,138,1.0,3.5,100,0.00,OVC,,0.39,WeatherDisplay:10.37,2013-11-01 10:42:00,
2013-11-01 06:43:00,63.1,63.1,29.74,SE,138,0.7,3.5,100,0.00,OVC,,0.39,WeatherDisplay:10.37,2013-11-01 10:43:00,
2013-11-01 06:45:00,63.1,63.1,29.74,SE,138,0.1,1.1,100,0.00,OVC,,0.39,WeatherDisplay:10.37,2013-11-01 10:45:00,
2013-11-01 06:46:00,63.1,63.1,29.74,SE,138,0.0,1.1,100,0.00,OVC,,0.39,WeatherDisplay:10.37,2013-11-01 10:46:00,
2013-11-01 06:48:00,63.0,63.0,29.74,SE,138,0.0,0.0,100,0.00,OVC,,0.39,WeatherDisplay:10.37,2013-11-01 10:48:00,
2013-11-01 06:50:00,63.0,63.0,29.74,SE,141,1.5,3.5,100,0.00,OVC,,0.39,WeatherDisplay:10.37,2013-11-01 10:50:00,
2013-11-01 06:51:00,63.0,63.0,29.74,SE,141,0.4,3.5,100,0.00,OVC,,0.39,WeatherDisplay:10.37,2013-11-01 10:51:00,
2013-11-01 06:53:00,62.9,62.9,29.74,SE,141,0.0,0.0,100,0.00,OVC,,0.39,WeatherDisplay:10.37,2013-11-01 10:53:00,
2013-11-01 06:54:00,62.9,62.9,29.74,SE,141,0.0,0.0,100,0.00,OVC,,0.39,WeatherDisplay:10.37,2013-11-01 10:54:00,
2013-11-01 06:55:00,62.9,62.9,29.74,SE,141,0.0,0.0,100,0.00,OVC,,0.39,WeatherDisplay:10.37,2013-11-01 10:55:00,
2013-11-01 06:56:00,62.9,62.9,29.74,SE,141,0.0,0.0,100,0.00,OVC,,0.39,WeatherDisplay:10.37,2013-11-01 10:56:00,
2013-11-01 06:57:00,62.9,62.9,29.74,SE,141,0.0,0.0,100,0.00,OVC,,0.39,WeatherDisplay:10.37,2013-11-01 10:57:00,
2013-11-01 06:58:00,62.8,62.8,29.74,SE,141,0.0,0.0,100,0.00,OVC,,0.39,WeatherDisplay:10.37,2013-11-01 10:58:00,
2013-11-01 06:59:00,62.8,62.8,29.74,SE,141,0.0,1.0,100,0.00,OVC,,0.39,WeatherDisplay:10.37,2013-11-01 10:59:00,
2013-11-01 07:01:00,62.8,62.8,29.74,SE,141,0.3,3.5,100,0.00,OVC,,0.39,WeatherDisplay:10.37,2013-11-01 11:01:00,
2013-11-01 07:02:00,62.8,62.8,29.75,SE,141,0.0,0.0,100,0.00,SCT,,0.39,WeatherDisplay:10.37,2013-11-01 11:02:00,
2013-11-01 07:03:00,62.7,62.7,29.74,SSE,154,0.6,3.5,100,0.00,SCT,,0.39,WeatherDisplay:10.37,2013-11-01 11:03:00,
2013-11-01 07:05:00,62.8,62.8,29.75,SSE,152,1.8,3.5,100,0.00,SCT,,0.39,WeatherDisplay:10.37,2013-11-01 11:05:00,
2013-11-01 07:06:00,62.8,62.8,29.75,SSE,152,0.0,0.0,100,0.00,SCT,,0.39,WeatherDisplay:10.37,2013-11-01 11:06:00,
2013-11-01 07:07:00,62.8,62.8,29.75,SSE,152,0.0,0.0,100,0.00,SCT,,0.39,WeatherDisplay:10.37,2013-11-01 11:07:00,
2013-11-01 07:09:00,62.8,62.8,29.75,SSE,152,0.0,0.0,100,0.00,SCT,,0.39,WeatherDisplay:10.37,2013-11-01 11:09:00,
2013-11-01 07:10:00,62.8,62.8,29.75,SE,140,0.5,3.5,100,0.00,SCT,,0.39,WeatherDisplay:10.37,2013-11-01 11:10:00,
2013-11-01 07:11:00,62.8,62.8,29.75,SE,141,0.0,0.0,100,0.00,SCT,,0.39,WeatherDisplay:10.37,2013-11-01 11:11:00,
2013-11-01 07:12:00,62.9,62.9,29.75,SE,140,0.0,0.0,100,0.00,SCT,,0.39,WeatherDisplay:10.37,2013-11-01 11:12:00,
2013-11-01 07:14:00,62.9,62.9,29.75,SE,140,0.0,0.0,100,0.00,SCT,,0.39,WeatherDisplay:10.37,2013-11-01 11:14:00,
2013-11-01 07:15:00,62.9,62.9,29.75,SE,140,0.0,0.0,100,0.00,SCT,,0.39,WeatherDisplay:10.37,2013-11-01 11:15:00,
2013-11-01 07:16:00,62.9,62.9,29.75,SE,141,0.0,0.0,100,0.00,SCT,,0.39,WeatherDisplay:10.37,2013-11-01 11:16:00,
2013-11-01 07:17:00,62.9,62.9,29.75,SE,141,0.0,0.0,100,0.00,SCT,,0.39,WeatherDisplay:10.37,2013-11-01 11:17:00,
2013-11-01 07:19:00,62.9,62.9,29.75,SE,140,0.0,0.0,100,0.00,SCT,,0.39,WeatherDisplay:10.37,2013-11-01 11:19:00,
2013-11-01 07:20:00,62.9,62.9,29.75,SE,140,0.0,0.0,100,0.00,SCT,,0.39,WeatherDisplay:10.37,2013-11-01 11:20:00,
2013-11-01 07:21:00,62.9,62.9,29.75,SE,140,0.0,0.0,100,0.00,SCT,,0.39,WeatherDisplay:10.37,2013-11-01 11:21:00,
2013-11-01 07:22:00,62.9,62.9,29.75,SE,140,0.0,0.0,100,0.00,SCT,,0.39,WeatherDisplay:10.37,2013-11-01 11:22:00,
2013-11-01 07:23:00,62.9,62.9,29.75,SE,137,0.0,0.0,100,0.00,SCT,,0.39,WeatherDisplay:10.37,2013-11-01 11:23:00,
2013-11-01 07:24:00,62.9,62.9,29.75,SSE,168,2.1,4.6,100,0.00,SCT,,0.39,WeatherDisplay:10.37,2013-11-01 11:24:00,
2013-11-01 07:25:00,62.9,62.9,29.75,South,173,3.5,6.0,100,0.00,SCT,,0.39,WeatherDisplay:10.37,2013-11-01 11:25:00,
2013-11-01 07:27:00,62.9,62.9,29.75,SE,145,2.9,6.9,100,0.00,SCT,,0.39,WeatherDisplay:10.37,2013-11-01 11:27:00,
2013-11-01 07:28:00,62.9,62.9,29.75,SSE,150,3.2,6.9,100,0.00,SCT,,0.39,WeatherDisplay:10.37,2013-11-01 11:28:00,
2013-11-01 07:29:00,63.0,63.0,29.75,SSE,151,0.1,4.6,100,0.00,SCT,,0.39,WeatherDisplay:10.37,2013-11-01 11:29:00,
2013-11-01 07:31:00,62.9,62.9,29.75,SSW,202,3.6,4.6,100,0.00,SCT,,0.39,WeatherDisplay:10.37,2013-11-01 11:31:00,
2013-11-01 07:32:00,62.9,62.9,29.75,SSE,156,3.9,5.8,100,0.00,SCT,,0.39,WeatherDisplay:10.37,2013-11-01 11:32:00,
2013-11-01 07:33:00,62.9,62.9,29.75,SE,142,3.3,4.6,100,0.00,SCT,,0.39,WeatherDisplay:10.37,2013-11-01 11:33:00,
2013-11-01 07:35:00,62.9,62.9,29.75,South,170,2.2,6.9,100,0.00,SCT,,0.39,WeatherDisplay:10.37,2013-11-01 11:35:00,
2013-11-01 07:36:00,62.9,62.9,29.75,SSE,166,4.0,4.6,100,0.00,SCT,,0.39,WeatherDisplay:10.37,2013-11-01 11:36:00,
2013-11-01 07:37:00,62.8,62.8,29.75,SSE,166,0.0,1.1,100,0.00,SCT,,0.39,WeatherDisplay:10.37,2013-11-01 11:37:00,
2013-11-01 07:38:00,62.8,62.8,29.75,SSE,167,0.0,1.1,100,0.00,SCT,,0.39,WeatherDisplay:10.37,2013-11-01 11:38:00,
2013-11-01 07:39:00,62.8,62.8,29.75,SSE,165,0.0,0.0,100,0.00,SCT,,0.39,WeatherDisplay:10.37,2013-11-01 11:39:00,
2013-11-01 07:40:00,62.8,62.8,29.75,South,169,0.0,1.1,100,0.00,SCT,,0.39,WeatherDisplay:10.37,2013-11-01 11:40:00,
2013-11-01 07:41:00,62.7,62.7,29.75,South,180,0.3,3.5,100,0.00,SCT,,0.39,WeatherDisplay:10.37,2013-11-01 11:41:00,
2013-11-01 07:42:00,62.6,62.6,29.75,South,180,0.0,3.5,100,0.00,SCT,,0.39,WeatherDisplay:10.37,2013-11-01 11:42:00,
2013-11-01 07:43:00,62.6,62.6,29.75,South,180,0.0,3.5,100,0.00,SCT,,0.39,WeatherDisplay:10.37,2013-11-01 11:43:00,
2013-11-01 07:44:00,62.6,62.6,29.75,South,180,0.0,0.0,100,0.00,SCT,,0.39,WeatherDisplay:10.37,2013-11-01 11:44:00,
2013-11-01 07:45:00,62.5,62.5,29.75,SSE,166,0.4,2.0,100,0.00,SCT,,0.39,WeatherDisplay:10.37,2013-11-01 11:45:00,
2013-11-01 07:46:00,62.5,62.5,29.76,SSE,165,0.8,3.5,100,0.00,SCT,,0.39,WeatherDisplay:10.37,2013-11-01 11:46:00,
2013-11-01 07:47:00,62.5,62.5,29.75,SSE,165,0.0,0.0,100,0.00,SCT,,0.39,WeatherDisplay:10.37,2013-11-01 11:47:00,
2013-11-01 07:48:00,62.5,62.5,29.76,SSE,165,0.0,0.0,100,0.00,SCT,,0.39,WeatherDisplay:10.37,2013-11-01 11:48:00,
2013-11-01 07:49:00,62.4,62.4,29.76,SSE,164,0.2,2.0,100,0.00,SCT,,0.39,WeatherDisplay:10.37,2013-11-01 11:49:00,
2013-11-01 07:50:00,62.4,62.4,29.75,SSE,164,0.0,2.3,100,0.00,SCT,,0.39,WeatherDisplay:10.37,2013-11-01 11:50:00,
2013-11-01 07:51:00,62.4,62.4,29.76,SSE,164,0.0,0.0,100,0.00,SCT,,0.39,WeatherDisplay:10.37,2013-11-01 11:51:00,
2013-11-01 07:53:00,62.3,62.3,29.76,SSE,164,0.0,0.0,100,0.00,SCT,,0.39,WeatherDisplay:10.37,2013-11-01 11:53:00,
2013-11-01 07:54:00,62.3,62.3,29.76,SSE,165,0.0,0.0,100,0.00,SCT,,0.39,WeatherDisplay:10.37,2013-11-01 11:54:00,
2013-11-01 07:56:00,62.2,62.2,29.76,SSE,164,0.0,0.0,100,0.00,SCT,,0.39,WeatherDisplay:10.37,2013-11-01 11:56:00,
2013-11-01 07:58:00,62.1,62.1,29.76,SSE,165,0.0,0.0,100,0.00,SCT,,0.39,WeatherDisplay:10.37,2013-11-01 11:58:00,
2013-11-01 07:59:00,62.1,62.1,29.76,SSE,164,0.0,0.0,100,0.00,SCT,,0.39,WeatherDisplay:10.37,2013-11-01 11:59:00,
2013-11-01 08:00:00,62.0,62.0,29.76,SSE,164,0.0,0.0,100,0.00,SCT,,0.39,WeatherDisplay:10.37,2013-11-01 12:00:00,
2013-11-01 08:01:00,62.0,62.0,29.76,SSE,165,0.0,0.0,100,0.00,SCT,,0.39,WeatherDisplay:10.37,2013-11-01 12:01:00,
2013-11-01 08:02:00,61.9,61.9,29.76,SSE,165,0.0,0.0,100,0.00,SCT,,0.39,WeatherDisplay:10.37,2013-11-01 12:02:00,
2013-11-01 08:03:00,61.8,61.8,29.76,SSE,165,0.0,0.0,100,0.00,SCT,,0.39,WeatherDisplay:10.37,2013-11-01 12:03:00,
2013-11-01 08:04:00,61.8,61.8,29.76,SSE,164,0.0,0.0,100,0.00,SCT,,0.39,WeatherDisplay:10.37,2013-11-01 12:04:00,
2013-11-01 08:05:00,61.7,61.7,29.76,SSE,164,0.0,0.0,100,0.00,SCT,,0.39,WeatherDisplay:10.37,2013-11-01 12:05:00,
2013-11-01 08:06:00,61.7,61.7,29.76,SSE,164,0.0,0.0,100,0.00,SCT,,0.39,WeatherDisplay:10.37,2013-11-01 12:06:00,
2013-11-01 08:07:00,61.6,61.6,29.76,SSE,162,0.0,0.0,100,0.00,SCT,,0.39,WeatherDisplay:10.37,2013-11-01 12:07:00,
2013-11-01 08:08:00,61.6,61.6,29.76,SSE,162,0.0,0.0,100,0.00,SCT,,0.39,WeatherDisplay:10.37,2013-11-01 12:08:00,
2013-11-01 08:09:00,61.6,61.6,29.76,SSE,162,0.0,0.0,100,0.00,SCT,,0.39,WeatherDisplay:10.37,2013-11-01 12:09:00,
2013-11-01 08:11:00,61.5,61.5,29.76,SSE,162,0.0,0.0,100,0.00,SCT,,0.39,WeatherDisplay:10.37,2013-11-01 12:11:00,
2013-11-01 08:13:00,61.4,61.4,29.76,SSE,162,0.0,0.0,100,0.00,SCT,,0.39,WeatherDisplay:10.37,2013-11-01 12:13:00,
2013-11-01 08:14:00,61.4,61.4,29.76,SSE,162,0.0,0.0,100,0.00,SCT,,0.39,WeatherDisplay:10.37,2013-11-01 12:14:00,
2013-11-01 08:15:00,61.3,61.3,29.76,SSE,162,0.0,0.0,100,0.00,SCT,,0.39,WeatherDisplay:10.37,2013-11-01 12:15:00,
2013-11-01 08:16:00,61.2,61.2,29.76,SSE,162,0.0,0.0,100,0.00,SCT,,0.39,WeatherDisplay:10.37,2013-11-01 12:16:00,
2013-11-01 08:18:00,61.0,61.0,29.76,SSE,162,0.0,0.0,100,0.00,SCT,,0.39,WeatherDisplay:10.37,2013-11-01 12:18:00,
2013-11-01 08:19:00,61.0,61.0,29.76,SE,139,0.2,2.0,100,0.00,SCT,,0.39,WeatherDisplay:10.37,2013-11-01 12:19:00,
2013-11-01 08:20:00,60.9,60.9,29.76,SE,128,0.0,3.5,100,0.00,SCT,,0.39,WeatherDisplay:10.37,2013-11-01 12:20:00,
2013-11-01 08:21:00,60.9,60.9,29.76,SE,128,0.0,0.0,100,0.00,SCT,,0.39,WeatherDisplay:10.37,2013-11-01 12:21:00,
2013-11-01 08:22:00,60.8,60.8,29.76,SE,128,0.0,0.0,100,0.00,SCT,,0.39,WeatherDisplay:10.37,2013-11-01 12:22:00,
2013-11-01 08:23:00,60.8,60.8,29.76,SE,131,0.0,0.0,100,0.00,SCT,,0.39,WeatherDisplay:10.37,2013-11-01 12:23:00,
2013-11-01 08:24:00,60.8,60.8,29.77,SE,132,0.0,0.0,100,0.00,SCT,,0.39,WeatherDisplay:10.37,2013-11-01 12:24:00,
2013-11-01 08:25:00,60.8,60.8,29.77,South,184,0.0,0.0,100,0.00,SCT,,0.39,WeatherDisplay:10.37,2013-11-01 12:25:00,
2013-11-01 08:27:00,60.7,60.7,29.77,South,182,0.0,0.0,100,0.00,SCT,,0.39,WeatherDisplay:10.37,2013-11-01 12:27:00,
2013-11-01 08:28:00,60.7,60.7,29.77,South,181,0.0,0.0,100,0.00,SCT,,0.39,WeatherDisplay:10.37,2013-11-01 12:28:00,
2013-11-01 08:30:00,60.7,60.7,29.77,SSE,166,2.4,3.5,100,0.00,SCT,,0.39,WeatherDisplay:10.37,2013-11-01 12:30:00,
2013-11-01 08:31:00,60.7,60.7,29.77,SSE,156,1.2,3.5,100,0.00,SCT,,0.39,WeatherDisplay:10.37,2013-11-01 12:31:00,
2013-11-01 08:33:00,60.7,60.7,29.77,South,176,0.4,3.5,100,0.00,SCT,,0.39,WeatherDisplay:10.37,2013-11-01 12:33:00,
2013-11-01 08:35:00,60.6,60.6,29.77,South,191,3.3,5.8,100,0.00,SCT,,0.39,WeatherDisplay:10.37,2013-11-01 12:35:00,
2013-11-01 08:36:00,60.6,60.6,29.77,SSE,150,1.7,5.8,100,0.00,SCT,,0.39,WeatherDisplay:10.37,2013-11-01 12:36:00,
2013-11-01 08:38:00,60.6,60.3,29.77,SSE,157,0.0,3.5,99,0.00,SCT,,0.39,WeatherDisplay:10.37,2013-11-01 12:38:00,
2013-11-01 08:39:00,60.6,60.3,29.77,SSE,157,0.0,3.5,99,0.00,SCT,,0.39,WeatherDisplay:10.37,2013-11-01 12:39:00,
2013-11-01 08:40:00,60.7,60.4,29.77,SSE,151,0.7,3.5,99,0.00,SCT,,0.39,WeatherDisplay:10.37,2013-11-01 12:40:00,
2013-11-01 08:41:00,60.7,60.4,29.77,SSE,149,0.0,3.5,99,0.00,SCT,,0.39,WeatherDisplay:10.37,2013-11-01 12:41:00,
2013-11-01 08:43:00,60.7,60.4,29.77,SSE,149,0.0,0.0,99,0.00,SCT,,0.39,WeatherDisplay:10.37,2013-11-01 12:43:00,
2013-11-01 08:44:00,60.8,60.5,29.78,SE,139,0.4,0.0,99,0.00,SCT,,0.39,WeatherDisplay:10.37,2013-11-01 12:44:00,
2013-11-01 08:46:00,60.8,60.5,29.78,SE,139,0.6,2.3,99,0.00,SCT,,0.39,WeatherDisplay:10.37,2013-11-01 12:46:00,
2013-11-01 08:47:00,60.8,60.5,29.78,SE,140,0.9,3.5,99,0.00,SCT,,0.39,WeatherDisplay:10.37,2013-11-01 12:47:00,
2013-11-01 08:49:00,60.8,60.2,29.78,SE,137,0.2,4.0,98,0.00,SCT,,0.39,WeatherDisplay:10.37,2013-11-01 12:49:00,
2013-11-01 08:50:00,60.9,60.6,29.78,SE,143,3.0,4.0,99,0.00,SCT,,0.39,WeatherDisplay:10.37,2013-11-01 12:50:00,
2013-11-01 08:51:00,60.9,60.6,29.78,SE,129,3.6,5.0,99,0.00,SCT,,0.39,WeatherDisplay:10.37,2013-11-01 12:51:00,
2013-11-01 08:52:00,60.9,60.6,29.78,SE,134,4.9,5.8,99,0.00,SCT,,0.39,WeatherDisplay:10.37,2013-11-01 12:52:00,
2013-11-01 08:54:00,61.0,60.7,29.78,SSE,150,2.9,5.8,99,0.00,SCT,,0.39,WeatherDisplay:10.37,2013-11-01 12:54:00,
2013-11-01 08:55:00,60.9,60.3,29.78,SSE,153,4.0,4.6,98,0.00,SCT,,0.39,WeatherDisplay:10.37,2013-11-01 12:55:00,
2013-11-01 08:56:00,61.0,60.4,29.78,SSE,150,2.5,3.5,98,0.00,SCT,,0.39,WeatherDisplay:10.37,2013-11-01 12:56:00,
2013-11-01 08:57:00,61.0,60.4,29.78,SSE,150,1.6,4.0,98,0.00,SCT,,0.39,WeatherDisplay:10.37,2013-11-01 12:57:00,
2013-11-01 08:59:00,61.0,60.4,29.78,SE,143,0.8,4.6,98,0.00,SCT,,0.39,WeatherDisplay:10.37,2013-11-01 12:59:00,
2013-11-01 09:00:00,61.0,60.1,29.78,SSE,167,3.4,6.9,97,0.00,SCT,,0.39,WeatherDisplay:10.37,2013-11-01 13:00:00,
2013-11-01 09:01:00,61.0,60.4,29.78,SSE,160,1.7,4.6,98,0.00,SCT,,0.39,WeatherDisplay:10.37,2013-11-01 13:01:00,
2013-11-01 09:02:00,61.0,60.1,29.78,SE,141,3.7,6.0,97,0.00,SCT,,0.39,WeatherDisplay:10.37,2013-11-01 13:02:00,
2013-11-01 09:04:00,61.0,60.4,29.78,South,174,5.3,10.4,98,0.00,SCT,,0.39,WeatherDisplay:10.37,2013-11-01 13:04:00,
2013-11-01 09:05:00,61.1,60.2,29.78,South,172,5.3,9.2,97,0.00,SCT,,0.39,WeatherDisplay:10.37,2013-11-01 13:05:00,
2013-11-01 09:06:00,61.1,60.2,29.78,SSE,149,4.9,8.1,97,0.00,SCT,,0.39,WeatherDisplay:10.37,2013-11-01 13:06:00,
2013-11-01 09:07:00,61.1,60.2,29.78,SSE,148,5.2,8.1,97,0.00,SCT,,0.39,WeatherDisplay:10.37,2013-11-01 13:07:00,
2013-11-01 09:10:00,61.2,60.3,29.78,SSE,152,2.5,6.9,97,0.00,SCT,,0.39,WeatherDisplay:10.37,2013-11-01 13:10:00,
2013-11-01 09:11:00,61.2,60.3,29.78,SSE,153,4.3,5.8,97,0.00,SCT,,0.39,WeatherDisplay:10.37,2013-11-01 13:11:00,
2013-11-01 09:12:00,61.2,60.1,29.78,SSE,167,3.5,5.0,96,0.00,SCT,,0.39,WeatherDisplay:10.37,2013-11-01 13:12:00,
2013-11-01 09:13:00,61.3,60.2,29.78,SE,138,4.2,4.6,96,0.00,SCT,,0.39,WeatherDisplay:10.37,2013-11-01 13:13:00,
2013-11-01 09:15:00,61.3,59.9,29.79,SSE,150,3.0,6.9,95,0.01,RA,,0.40,WeatherDisplay:10.37,2013-11-01 13:15:00,
2013-11-01 09:17:00,61.3,59.9,29.78,SSE,166,4.8,8.1,95,0.01,RA,,0.40,WeatherDisplay:10.37,2013-11-01 13:17:00,
2013-11-01 09:18:00,61.4,60.0,29.78,SE,142,2.6,5.8,95,0.01,RA,,0.40,WeatherDisplay:10.37,2013-11-01 13:18:00,
2013-11-01 09:20:00,61.4,59.7,29.79,SW,216,1.6,3.5,94,0.01,RA,,0.40,WeatherDisplay:10.37,2013-11-01 13:20:00,
2013-11-01 09:21:00,61.5,59.8,29.79,South,186,5.1,10.0,94,0.01,RA,,0.40,WeatherDisplay:10.37,2013-11-01 13:21:00,
2013-11-01 09:22:00,61.5,59.8,29.79,SSE,162,6.9,11.5,94,0.01,RA,,0.40,WeatherDisplay:10.37,2013-11-01 13:22:00,
2013-11-01 09:23:00,61.5,59.8,29.79,South,176,6.6,11.5,94,0.01,RA,,0.40,WeatherDisplay:10.37,2013-11-01 13:23:00,
2013-11-01 09:25:00,61.6,59.9,29.79,SSE,148,0.5,8.1,94,0.01,SCT,,0.40,WeatherDisplay:10.37,2013-11-01 13:25:00,
2013-11-01 09:26:00,61.7,60.0,29.79,SSW,195,2.4,6.9,94,0.01,SCT,,0.40,WeatherDisplay:10.37,2013-11-01 13:26:00,
2013-11-01 09:27:00,61.7,60.0,29.79,SSE,158,3.5,4.6,94,0.01,SCT,,0.40,WeatherDisplay:10.37,2013-11-01 13:27:00,
2013-11-01 09:28:00,61.7,60.0,29.79,SE,142,3.5,4.6,94,0.01,SCT,,0.40,WeatherDisplay:10.37,2013-11-01 13:28:00,
2013-11-01 09:29:00,61.7,60.0,29.79,South,176,2.6,8.1,94,0.01,SCT,,0.40,WeatherDisplay:10.37,2013-11-01 13:29:00,
2013-11-01 09:30:00,61.8,60.1,29.79,SSE,165,4.8,9.2,94,0.01,SCT,,0.40,WeatherDisplay:10.37,2013-11-01 13:30:00,
2013-11-01 09:31:00,61.8,59.8,29.79,SSE,168,5.0,6.0,93,0.01,SCT,,0.40,WeatherDisplay:10.37,2013-11-01 13:31:00,
2013-11-01 09:33:00,61.9,59.9,29.79,South,179,3.3,6.9,93,0.01,SCT,,0.40,WeatherDisplay:10.37,2013-11-01 13:33:00,
2013-11-01 09:34:00,61.9,59.9,29.79,SE,143,4.7,6.9,93,0.01,SCT,,0.40,WeatherDisplay:10.37,2013-11-01 13:34:00,
2013-11-01 09:35:00,61.9,59.5,29.79,SSW,207,6.1,10.4,92,0.01,SCT,,0.40,WeatherDisplay:10.37,2013-11-01 13:35:00,
2013-11-01 09:36:00,61.9,59.5,29.79,SSW,202,2.6,6.9,92,0.01,SCT,,0.40,WeatherDisplay:10.37,2013-11-01 13:36:00,
2013-11-01 09:38:00,62.0,59.6,29.79,South,181,2.8,5.8,92,0.01,SCT,,0.40,WeatherDisplay:10.37,2013-11-01 13:38:00,
2013-11-01 09:39:00,62.1,59.7,29.79,SSE,149,3.8,7.0,92,0.01,SCT,,0.40,WeatherDisplay:10.37,2013-11-01 13:39:00,
2013-11-01 09:41:00,62.1,59.4,29.79,SSW,203,5.6,10.4,91,0.01,SCT,,0.40,WeatherDisplay:10.37,2013-11-01 13:41:00,
2013-11-01 09:42:00,62.2,59.5,29.79,SE,142,1.3,4.6,91,0.01,SCT,,0.40,WeatherDisplay:10.37,2013-11-01 13:42:00,
2013-11-01 09:43:00,62.3,59.9,29.79,SSE,150,3.6,4.6,92,0.01,SCT,,0.40,WeatherDisplay:10.37,2013-11-01 13:43:00,
2013-11-01 09:44:00,62.3,59.9,29.79,SSW,200,4.1,7.0,92,0.01,SCT,,0.40,WeatherDisplay:10.37,2013-11-01 13:44:00,
2013-11-01 09:46:00,62.3,59.6,29.79,SSE,161,7.2,9.2,91,0.01,SCT,,0.40,WeatherDisplay:10.37,2013-11-01 13:46:00,
2013-11-01 09:47:00,62.4,59.7,29.79,SSW,197,4.4,9.2,91,0.01,SCT,,0.40,WeatherDisplay:10.37,2013-11-01 13:47:00,
2013-11-01 09:48:00,62.4,59.7,29.79,SSE,166,3.3,6.0,91,0.01,SCT,,0.40,WeatherDisplay:10.37,2013-11-01 13:48:00,
2013-11-01 09:49:00,62.5,59.5,29.79,South,179,7.1,9.2,90,0.01,SCT,,0.40,WeatherDisplay:10.37,2013-11-01 13:49:00,
2013-11-01 09:50:00,62.5,59.5,29.79,SSE,167,7.2,9.2,90,0.01,SCT,,0.40,WeatherDisplay:10.37,2013-11-01 13:50:00,
2013-11-01 09:51:00,62.5,59.5,29.79,South,190,3.1,8.1,90,0.01,SCT,,0.40,WeatherDisplay:10.37,2013-11-01 13:51:00,
2013-11-01 09:52:00,62.5,59.8,29.79,South,188,4.3,9.0,91,0.01,SCT,,0.40,WeatherDisplay:10.37,2013-11-01 13:52:00,
2013-11-01 09:53:00,62.6,59.3,29.79,SE,146,7.8,11.5,89,0.01,SCT,,0.40,WeatherDisplay:10.37,2013-11-01 13:53:00,
2013-11-01 09:54:00,62.6,59.0,29.79,South,185,5.3,10.4,88,0.01,SCT,,0.40,WeatherDisplay:10.37,2013-11-01 13:54:00,
2013-11-01 09:55:00,62.6,59.3,29.79,South,178,4.5,10.4,89,0.01,SCT,,0.40,WeatherDisplay:10.37,2013-11-01 13:55:00,
2013-11-01 09:57:00,62.7,59.4,29.79,SSW,198,4.4,9.2,89,0.01,SCT,,0.40,WeatherDisplay:10.37,2013-11-01 13:57:00,
2013-11-01 09:58:00,62.8,59.2,29.79,SW,228,4.3,9.2,88,0.01,SCT,,0.40,WeatherDisplay:10.37,2013-11-01 13:58:00,
2013-11-01 09:59:00,62.8,58.9,29.79,SSW,199,7.2,11.5,87,0.01,SCT,,0.40,WeatherDisplay:10.37,2013-11-01 13:59:00,
2013-11-01 10:00:00,62.8,58.9,29.79,SSW,201,7.0,12.0,87,0.01,SCT,,0.40,WeatherDisplay:10.37,2013-11-01 14:00:00,
2013-11-01 10:02:00,62.3,57.7,29.79,South,185,5.9,13.8,85,0.01,FEW,,0.40,WeatherDisplay:10.37,2013-11-01 14:02:00,
2013-11-01 10:03:00,62.1,58.2,29.79,SSE,156,9.2,16.1,87,0.01,FEW,,0.40,WeatherDisplay:10.37,2013-11-01 14:03:00,
2013-11-01 10:04:00,62.2,58.3,29.79,South,184,7.3,16.1,87,0.01,FEW,,0.40,WeatherDisplay:10.37,2013-11-01 14:04:00,
2013-11-01 10:05:00,62.0,57.8,29.79,SSW,196,8.9,11.5,86,0.01,FEW,,0.40,WeatherDisplay:10.37,2013-11-01 14:05:00,
2013-11-01 10:07:00,61.9,57.7,29.79,SSE,165,7.0,10.4,86,0.01,FEW,,0.40,WeatherDisplay:10.37,2013-11-01 14:07:00,
2013-11-01 10:09:00,61.6,56.7,29.79,South,189,8.9,15.0,84,0.01,FEW,,0.40,WeatherDisplay:10.37,2013-11-01 14:09:00,
2013-11-01 10:10:00,61.3,56.4,29.79,SSW,209,9.0,12.7,84,0.01,FEW,,0.40,WeatherDisplay:10.37,2013-11-01 14:10:00,
2013-11-01 10:11:00,62.4,57.8,29.79,SW,217,9.7,12.7,85,0.01,FEW,,0.40,WeatherDisplay:10.37,2013-11-01 14:11:00,
2013-11-01 10:12:00,62.9,58.3,29.79,South,171,6.9,15.0,85,0.01,FEW,,0.40,WeatherDisplay:10.37,2013-11-01 14:12:00,
2013-11-01 10:14:00,62.9,58.3,29.79,South,184,5.7,11.0,85,0.00,FEW,,0.40,WeatherDisplay:10.37,2013-11-01 14:14:00,
2013-11-01 10:15:00,63.0,58.7,29.79,SSW,200,4.9,12.7,86,0.00,FEW,,0.40,WeatherDisplay:10.37,2013-11-01 14:15:00,
2013-11-01 10:16:00,63.0,58.4,29.79,SSW,198,7.0,12.0,85,0.00,FEW,,0.40,WeatherDisplay:10.37,2013-11-01 14:16:00,
2013-11-01 10:17:00,63.0,58.1,29.79,South,181,7.1,13.8,84,0.00,FEW,,0.40,WeatherDisplay:10.37,2013-11-01 14:17:00,
2013-11-01 10:18:00,63.1,58.5,29.79,South,180,6.6,13.8,85,0.00,FEW,,0.40,WeatherDisplay:10.37,2013-11-01 14:18:00,
2013-11-01 10:19:00,63.2,58.6,29.79,SSE,159,8.1,11.5,85,0.00,FEW,,0.40,WeatherDisplay:10.37,2013-11-01 14:19:00,
2013-11-01 10:21:00,63.1,57.9,29.79,SSW,211,8.0,11.5,83,0.00,FEW,,0.40,WeatherDisplay:10.37,2013-11-01 14:21:00,
2013-11-01 10:22:00,63.2,58.6,29.79,South,185,6.1,11.0,85,0.00,FEW,,0.40,WeatherDisplay:10.37,2013-11-01 14:22:00,
2013-11-01 10:23:00,63.2,58.3,29.79,South,186,9.1,9.2,84,0.00,FEW,,0.40,WeatherDisplay:10.37,2013-11-01 14:23:00,
2013-11-01 10:24:00,63.3,58.0,29.79,SSW,206,8.1,10.4,83,0.00,FEW,,0.40,WeatherDisplay:10.37,2013-11-01 14:24:00,
2013-11-01 10:25:00,63.3,58.4,29.79,SSW,194,9.2,16.0,84,0.00,FEW,,0.40,WeatherDisplay:10.37,2013-11-01 14:25:00,
2013-11-01 10:26:00,63.2,57.9,29.79,SSW,202,10.1,16.1,83,0.00,FEW,,0.40,WeatherDisplay:10.37,2013-11-01 14:26:00,
2013-11-01 10:27:00,63.3,58.0,29.79,SSE,154,6.3,10.4,83,0.00,FEW,,0.40,WeatherDisplay:10.37,2013-11-01 14:27:00,
2013-11-01 10:28:00,63.3,58.4,29.79,SW,229,7.8,10.4,84,0.00,FEW,,0.40,WeatherDisplay:10.37,2013-11-01 14:28:00,
2013-11-01 10:30:00,63.4,58.5,29.79,South,175,3.1,8.1,84,0.00,FEW,,0.40,WeatherDisplay:10.37,2013-11-01 14:30:00,
2013-11-01 10:31:00,63.5,58.9,29.79,SE,142,3.7,14.0,85,0.00,FEW,,0.40,WeatherDisplay:10.37,2013-11-01 14:31:00,
2013-11-01 10:32:00,63.5,57.9,29.79,South,185,10.0,15.0,82,0.00,FEW,,0.40,WeatherDisplay:10.37,2013-11-01 14:32:00,
2013-11-01 10:33:00,63.5,58.2,29.79,SSE,159,7.0,15.0,83,0.00,FEW,,0.40,WeatherDisplay:10.37,2013-11-01 14:33:00,
2013-11-01 10:35:00,63.5,57.9,29.79,South,183,9.5,17.3,82,0.00,FEW,,0.40,WeatherDisplay:10.37,2013-11-01 14:35:00,
2013-11-01 10:37:00,63.5,57.6,29.78,SSW,196,14.3,15.0,81,0.00,FEW,,0.40,WeatherDisplay:10.37,2013-11-01 14:37:00,
2013-11-01 10:38:00,63.4,57.5,29.78,South,171,10.8,18.4,81,0.00,FEW,,0.40,WeatherDisplay:10.37,2013-11-01 14:38:00,
2013-11-01 10:41:00,63.5,57.9,29.78,SSW,204,11.9,11.9,82,0.00,FEW,,0.40,WeatherDisplay:10.37,2013-11-01 14:41:00,
2013-11-01 10:42:00,63.5,57.6,29.78,SSW,212,10.6,18.4,81,0.00,FEW,,0.40,WeatherDisplay:10.37,2013-11-01 14:42:00,
2013-11-01 10:43:00,63.5,57.6,29.78,SSW,194,12.9,18.4,81,0.00,FEW,,0.40,WeatherDisplay:10.37,2013-11-01 14:43:00,
2013-11-01 10:44:00,63.5,57.6,29.78,South,189,11.4,18.4,81,0.00,FEW,,0.40,WeatherDisplay:10.37,2013-11-01 14:44:00,
2013-11-01 10:46:00,63.7,58.4,29.78,SE,142,5.2,9.2,83,0.00,FEW,,0.40,WeatherDisplay:10.37,2013-11-01 14:46:00,
2013-11-01 10:47:00,63.7,58.4,29.78,SSE,166,5.6,9.2,83,0.00,FEW,,0.40,WeatherDisplay:10.37,2013-11-01 14:47:00,
2013-11-01 10:48:00,63.8,58.5,29.78,SSW,200,9.3,12.7,83,0.00,FEW,,0.40,WeatherDisplay:10.37,2013-11-01 14:48:00,
2013-11-01 10:49:00,63.9,58.3,29.78,South,189,9.0,12.7,82,0.00,FEW,,0.40,WeatherDisplay:10.37,2013-11-01 14:49:00,
2013-11-01 10:52:00,64.1,59.5,29.79,South,189,5.7,12.0,85,0.00,FEW,,0.40,WeatherDisplay:10.37,2013-11-01 14:52:00,
2013-11-01 10:53:00,64.1,59.2,29.79,SSE,162,9.4,11.5,84,0.00,FEW,,0.40,WeatherDisplay:10.37,2013-11-01 14:53:00,
2013-11-01 10:54:00,64.1,58.5,29.78,South,171,7.3,10.4,82,0.00,FEW,,0.40,WeatherDisplay:10.37,2013-11-01 14:54:00,
2013-11-01 10:57:00,64.2,58.6,29.78,SSE,147,4.8,9.2,82,0.00,FEW,,0.40,WeatherDisplay:10.37,2013-11-01 14:57:00,
2013-11-01 10:58:00,64.3,58.7,29.78,South,171,8.3,11.0,82,0.00,FEW,,0.40,WeatherDisplay:10.37,2013-11-01 14:58:00,
2013-11-01 10:59:00,64.3,58.7,29.78,SSW,193,8.6,11.5,82,0.00,FEW,,0.40,WeatherDisplay:10.37,2013-11-01 14:59:00,
2013-11-01 11:00:00,64.3,58.3,29.78,SSE,166,9.9,13.0,81,0.00,FEW,,0.40,WeatherDisplay:10.37,2013-11-01 15:00:00,
2013-11-01 11:02:00,64.3,58.7,29.78,SSE,166,7.1,17.3,82,0.00,FEW,,0.40,WeatherDisplay:10.37,2013-11-01 15:02:00,
2013-11-01 11:03:00,64.3,58.3,29.78,SSE,148,7.7,17.3,81,0.00,FEW,,0.40,WeatherDisplay:10.37,2013-11-01 15:03:00,
2013-11-01 11:04:00,64.3,58.3,29.78,South,191,11.0,14.0,81,0.00,FEW,,0.40,WeatherDisplay:10.37,2013-11-01 15:04:00,
2013-11-01 11:05:00,64.3,58.0,29.78,South,188,11.4,15.0,80,0.00,FEW,,0.40,WeatherDisplay:10.37,2013-11-01 15:05:00,
2013-11-01 11:08:00,64.3,58.7,29.78,SSW,195,5.4,7.0,82,0.00,FEW,,0.40,WeatherDisplay:10.37,2013-11-01 15:08:00,
2013-11-01 11:09:00,64.4,58.8,29.78,SSE,166,6.9,9.2,82,0.00,FEW,,0.40,WeatherDisplay:10.37,2013-11-01 15:09:00,
2013-11-01 11:10:00,64.5,58.9,29.78,SSW,196,7.5,10.4,82,0.00,FEW,,0.40,WeatherDisplay:10.37,2013-11-01 15:10:00,
2013-11-01 11:11:00,64.6,59.0,29.78,South,190,4.2,8.1,82,0.00,FEW,,0.40,WeatherDisplay:10.37,2013-11-01 15:11:00,
2013-11-01 11:13:00,64.6,59.0,29.78,SSW,210,5.4,10.4,82,0.00,FEW,,0.40,WeatherDisplay:10.37,2013-11-01 15:13:00,
2013-11-01 11:14:00,64.7,59.1,29.78,South,180,5.0,8.1,82,0.00,FEW,,0.40,WeatherDisplay:10.37,2013-11-01 15:14:00,
2013-11-01 11:15:00,64.7,58.7,29.78,SSW,192,9.0,15.0,81,0.00,FEW,,0.40,WeatherDisplay:10.37,2013-11-01 15:15:00,
2013-11-01 11:16:00,64.7,58.7,29.78,SSW,192,6.7,11.5,81,0.00,FEW,,0.40,WeatherDisplay:10.37,2013-11-01 15:16:00,
2013-11-01 11:18:00,64.7,58.4,29.78,South,182,5.8,10.4,80,0.00,FEW,,0.40,WeatherDisplay:10.37,2013-11-01 15:18:00,
2013-11-01 11:19:00,64.8,59.5,29.78,SSW,193,7.3,10.0,83,0.00,FEW,,0.40,WeatherDisplay:10.37,2013-11-01 15:19:00,
2013-11-01 11:20:00,64.8,58.8,29.78,South,185,7.6,9.2,81,0.00,FEW,,0.40,WeatherDisplay:10.37,2013-11-01 15:20:00,
2013-11-01 11:22:00,64.9,58.9,29.78,WSW,248,5.4,10.4,81,0.00,FEW,,0.40,WeatherDisplay:10.37,2013-11-01 15:22:00,
2013-11-01 11:23:00,65.0,59.4,29.78,South,172,1.6,6.0,82,0.00,FEW,,0.40,WeatherDisplay:10.37,2013-11-01 15:23:00,
2013-11-01 11:24:00,65.0,59.0,29.78,SW,231,6.5,11.5,81,0.00,FEW,,0.40,WeatherDisplay:10.37,2013-11-01 15:24:00,
2013-11-01 11:25:00,65.1,59.1,29.78,SSE,152,2.2,9.2,81,0.00,FEW,,0.40,WeatherDisplay:10.37,2013-11-01 15:25:00,
2013-11-01 11:27:00,65.0,58.7,29.78,South,188,8.1,13.8,80,0.00,FEW,,0.40,WeatherDisplay:10.37,2013-11-01 15:27:00,
2013-11-01 11:29:00,65.0,58.7,29.78,SSE,159,2.9,10.4,80,0.00,FEW,,0.40,WeatherDisplay:10.37,2013-11-01 15:29:00,
2013-11-01 11:30:00,65.1,58.1,29.78,SW,215,4.0,6.9,78,0.00,FEW,,0.40,WeatherDisplay:10.37,2013-11-01 15:30:00,
2013-11-01 11:33:00,65.2,59.2,29.78,South,172,0.6,5.8,81,0.00,FEW,,0.40,WeatherDisplay:10.37,2013-11-01 15:33:00,
2013-11-01 11:34:00,65.3,59.0,29.78,SSE,165,5.4,5.8,80,0.00,FEW,,0.40,WeatherDisplay:10.37,2013-11-01 15:34:00,
2013-11-01 11:35:00,65.4,59.4,29.78,South,179,3.0,6.9,81,0.00,FEW,,0.40,WeatherDisplay:10.37,2013-11-01 15:35:00,
2013-11-01 11:37:00,65.7,59.7,29.78,ESE,109,5.0,6.0,81,0.00,FEW,,0.40,WeatherDisplay:10.37,2013-11-01 15:37:00,
2013-11-01 11:38:00,65.8,59.5,29.78,South,191,4.1,7.0,80,0.00,FEW,,0.40,WeatherDisplay:10.37,2013-11-01 15:38:00,
2013-11-01 11:39:00,65.8,59.1,29.78,South,183,7.6,9.2,79,0.00,FEW,,0.40,WeatherDisplay:10.37,2013-11-01 15:39:00,
2013-11-01 11:40:00,66.1,59.4,29.78,South,187,7.4,9.2,79,0.00,FEW,,0.40,WeatherDisplay:10.37,2013-11-01 15:40:00,
2013-11-01 11:41:00,66.1,59.4,29.78,South,186,6.9,11.5,79,0.00,FEW,,0.40,WeatherDisplay:10.37,2013-11-01 15:41:00,
2013-11-01 11:42:00,66.1,59.0,29.78,SSE,165,5.7,9.2,78,0.00,FEW,,0.40,WeatherDisplay:10.37,2013-11-01 15:42:00,
2013-11-01 11:43:00,66.1,59.4,29.78,SSW,195,8.6,11.0,79,0.00,FEW,,0.40,WeatherDisplay:10.37,2013-11-01 15:43:00,
2013-11-01 11:44:00,66.2,59.5,29.78,SSE,156,6.8,11.5,79,0.00,FEW,,0.40,WeatherDisplay:10.37,2013-11-01 15:44:00,
2013-11-01 11:45:00,66.1,59.4,29.78,SSE,163,7.9,11.5,79,0.00,FEW,,0.40,WeatherDisplay:10.37,2013-11-01 15:45:00,
2013-11-01 11:46:00,66.1,59.0,29.78,South,176,7.9,12.7,78,0.00,FEW,,0.40,WeatherDisplay:10.37,2013-11-01 15:46:00,
2013-11-01 11:47:00,66.2,59.1,29.78,SW,225,7.0,8.1,78,0.00,FEW,,0.40,WeatherDisplay:10.37,2013-11-01 15:47:00,
2013-11-01 11:48:00,66.2,59.1,29.78,SSW,199,6.9,11.5,78,0.00,FEW,,0.40,WeatherDisplay:10.37,2013-11-01 15:48:00,
2013-11-01 11:49:00,66.1,58.3,29.78,SSW,206,7.0,10.4,76,0.00,FEW,,0.40,WeatherDisplay:10.37,2013-11-01 15:49:00,
2013-11-01 11:50:00,66.1,58.7,29.78,SW,224,7.6,10.4,77,0.00,FEW,,0.40,WeatherDisplay:10.37,2013-11-01 15:50:00,
2013-11-01 11:51:00,65.8,58.7,29.78,SW,231,8.2,14.0,78,0.00,FEW,,0.40,WeatherDisplay:10.37,2013-11-01 15:51:00,
2013-11-01 11:53:00,65.6,58.6,29.78,SW,222,7.8,13.8,78,0.00,FEW,,0.40,WeatherDisplay:10.37,2013-11-01 15:53:00,
2013-11-01 11:54:00,65.5,58.8,29.78,SW,223,4.7,10.4,79,0.00,FEW,,0.40,WeatherDisplay:10.37,2013-11-01 15:54:00,
2013-11-01 11:55:00,65.4,58.0,29.78,SW,231,7.7,10.4,77,0.00,FEW,,0.40,WeatherDisplay:10.37,2013-11-01 15:55:00,
2013-11-01 11:56:00,65.3,58.3,29.78,SW,223,9.2,12.7,78,0.00,FEW,,0.40,WeatherDisplay:10.37,2013-11-01 15:56:00,
2013-11-01 11:58:00,65.3,58.3,29.77,SW,226,6.9,12.7,78,0.00,FEW,,0.40,WeatherDisplay:10.37,2013-11-01 15:58:00,
2013-11-01 11:59:00,65.4,58.0,29.78,SW,224,8.5,11.5,77,0.00,FEW,,0.40,WeatherDisplay:10.37,2013-11-01 15:59:00,
2013-11-01 12:00:00,65.5,58.5,29.78,South,179,6.2,12.0,78,0.00,FEW,,0.40,WeatherDisplay:10.37,2013-11-01 16:00:00,
2013-11-01 12:01:00,65.6,58.6,29.78,SSW,203,8.4,11.5,78,0.00,FEW,,0.40,WeatherDisplay:10.37,2013-11-01 16:01:00,
2013-11-01 12:03:00,65.8,58.4,29.78,SSW,205,8.5,11.5,77,0.00,FEW,,0.40,WeatherDisplay:10.37,2013-11-01 16:03:00,
2013-11-01 12:04:00,65.9,58.8,29.77,SSW,201,6.7,9.2,78,0.00,FEW,,0.40,WeatherDisplay:10.37,2013-11-01 16:04:00,
2013-11-01 12:05:00,66.0,58.6,29.77,SSW,201,4.9,10.4,77,0.00,FEW,,0.40,WeatherDisplay:10.37,2013-11-01 16:05:00,
2013-11-01 12:06:00,66.1,57.9,29.77,SW,233,5.0,9.0,75,0.00,FEW,,0.40,WeatherDisplay:10.37,2013-11-01 16:06:00,
2013-11-01 12:08:00,66.3,59.6,29.77,South,181,3.3,5.8,79,0.00,FEW,,0.40,WeatherDisplay:10.37,2013-11-01 16:08:00,
2013-11-01 12:10:00,66.5,59.1,29.77,SSE,155,4.6,8.1,77,0.00,FEW,,0.40,WeatherDisplay:10.37,2013-11-01 16:10:00,
2013-11-01 12:11:00,66.6,58.8,29.77,South,176,6.3,9.2,76,0.00,FEW,,0.40,WeatherDisplay:10.37,2013-11-01 16:11:00,
2013-11-01 12:13:00,66.9,59.1,29.77,SSW,196,2.2,12.7,76,0.00,FEW,,0.40,WeatherDisplay:10.37,2013-11-01 16:13:00,
2013-11-01 12:15:00,67.0,58.4,29.77,SSW,207,5.3,6.9,74,0.00,FEW,,0.40,WeatherDisplay:10.37,2013-11-01 16:15:00,
2013-11-01 12:16:00,67.1,58.9,29.77,WNW,283,2.1,5.8,75,0.00,FEW,,0.40,WeatherDisplay:10.37,2013-11-01 16:16:00,
2013-11-01 12:17:00,67.2,58.6,29.77,SE,133,0.7,5.8,74,0.00,FEW,,0.40,WeatherDisplay:10.37,2013-11-01 16:17:00,
2013-11-01 12:19:00,67.5,58.5,29.77,SSW,208,0.1,3.5,73,0.00,FEW,,0.40,WeatherDisplay:10.37,2013-11-01 16:19:00,
2013-11-01 12:20:00,67.5,58.5,29.77,South,186,1.4,3.5,73,0.00,FEW,,0.40,WeatherDisplay:10.37,2013-11-01 16:20:00,
2013-11-01 12:21:00,67.6,59.0,29.77,South,186,5.6,9.2,74,0.00,FEW,,0.40,WeatherDisplay:10.37,2013-11-01 16:21:00,
2013-11-01 12:22:00,67.6,59.0,29.77,SE,124,3.1,9.2,74,0.00,FEW,,0.40,WeatherDisplay:10.37,2013-11-01 16:22:00,
2013-11-01 12:25:00,67.9,58.9,29.77,ESE,114,7.1,12.7,73,0.00,FEW,,0.40,WeatherDisplay:10.37,2013-11-01 16:25:00,
2013-11-01 12:27:00,68.1,59.1,29.77,SSE,147,8.3,12.7,73,0.00,FEW,,0.40,WeatherDisplay:10.37,2013-11-01 16:27:00,
2013-11-01 12:30:00,68.1,59.5,29.77,South,181,5.1,12.7,74,0.00,FEW,,0.40,WeatherDisplay:10.37,2013-11-01 16:30:00,
2013-11-01 12:32:00,68.1,59.5,29.77,South,179,4.4,8.1,74,0.00,FEW,,0.40,WeatherDisplay:10.37,2013-11-01 16:32:00,
2013-11-01 12:33:00,68.2,59.6,29.77,SSW,210,4.2,8.1,74,0.00,FEW,,0.40,WeatherDisplay:10.37,2013-11-01 16:33:00,
2013-11-01 12:35:00,68.1,58.3,29.77,SW,223,6.8,11.5,71,0.00,FEW,,0.40,WeatherDisplay:10.37,2013-11-01 16:35:00,
2013-11-01 12:37:00,68.1,59.5,29.76,WSW,252,5.4,10.4,74,0.00,FEW,,0.40,WeatherDisplay:10.37,2013-11-01 16:37:00,
2013-11-01 12:38:00,68.0,59.4,29.76,SW,214,4.6,10.4,74,0.00,FEW,,0.40,WeatherDisplay:10.37,2013-11-01 16:38:00,
2013-11-01 12:40:00,67.5,58.5,29.76,SSW,209,6.0,10.4,73,0.00,FEW,,0.40,WeatherDisplay:10.37,2013-11-01 16:40:00,
2013-11-01 12:42:00,67.1,58.5,29.77,SW,224,3.2,6.0,74,0.00,FEW,,0.40,WeatherDisplay:10.37,2013-11-01 16:42:00,
2013-11-01 12:43:00,67.1,58.5,29.76,SW,231,5.6,9.0,74,0.00,FEW,,0.40,WeatherDisplay:10.37,2013-11-01 16:43:00,
2013-11-01 12:45:00,67.1,59.3,29.76,SW,235,3.1,8.0,76,0.00,FEW,,0.40,WeatherDisplay:10.37,2013-11-01 16:45:00,
2013-11-01 12:46:00,67.1,58.9,29.76,SSW,213,5.7,5.7,75,0.00,FEW,,0.40,WeatherDisplay:10.37,2013-11-01 16:46:00,
2013-11-01 12:47:00,67.1,58.2,29.76,SW,229,9.6,15.0,73,0.00,FEW,,0.40,WeatherDisplay:10.37,2013-11-01 16:47:00,
2013-11-01 12:48:00,67.2,58.6,29.76,South,182,8.2,15.0,74,0.00,FEW,,0.40,WeatherDisplay:10.37,2013-11-01 16:48:00,
2013-11-01 12:51:00,67.4,59.2,29.76,SW,221,8.0,12.7,75,0.00,FEW,,0.40,WeatherDisplay:10.37,2013-11-01 16:51:00,
2013-11-01 12:52:00,67.5,58.5,29.76,South,172,6.6,11.5,73,0.00,FEW,,0.40,WeatherDisplay:10.37,2013-11-01 16:52:00,
2013-11-01 12:53:00,67.6,59.4,29.76,SSE,160,3.0,6.9,75,0.00,FEW,,0.40,WeatherDisplay:10.37,2013-11-01 16:53:00,
2013-11-01 12:56:00,68.0,58.2,29.76,South,184,5.7,9.2,71,0.00,FEW,,0.40,WeatherDisplay:10.37,2013-11-01 16:56:00,
2013-11-01 12:57:00,68.1,58.3,29.76,SSW,193,4.5,8.1,71,0.00,FEW,,0.40,WeatherDisplay:10.37,2013-11-01 16:57:00,
2013-11-01 12:58:00,68.2,58.8,29.76,SSW,205,3.1,7.0,72,0.00,FEW,,0.40,WeatherDisplay:10.37,2013-11-01 16:58:00,
2013-11-01 13:02:00,68.5,57.9,29.76,SSE,166,8.3,12.7,69,0.00,FEW,,0.40,WeatherDisplay:10.37,2013-11-01 17:02:00,
2013-11-01 13:03:00,68.5,57.5,29.76,SW,232,8.3,12.7,68,0.00,FEW,,0.40,WeatherDisplay:10.37,2013-11-01 17:03:00,
2013-11-01 13:07:00,68.4,57.4,29.75,SSW,207,9.3,9.3,68,0.00,FEW,,0.40,WeatherDisplay:10.37,2013-11-01 17:07:00,
2013-11-01 13:08:00,68.4,57.8,29.75,SSW,211,9.7,9.7,69,0.00,FEW,,0.40,WeatherDisplay:10.37,2013-11-01 17:08:00,
2013-11-01 13:09:00,68.3,57.7,29.75,WSW,242,5.4,13.8,69,0.00,FEW,,0.40,WeatherDisplay:10.37,2013-11-01 17:09:00,
2013-11-01 13:10:00,68.2,57.2,29.75,SW,224,6.9,8.1,68,0.00,FEW,,0.40,WeatherDisplay:10.37,2013-11-01 17:10:00,
2013-11-01 13:13:00,67.8,58.1,29.75,SW,217,2.0,4.0,71,0.00,FEW,,0.40,WeatherDisplay:10.37,2013-11-01 17:13:00,
2013-11-01 13:14:00,67.9,58.1,29.75,SW,229,4.1,8.0,71,0.00,FEW,,0.40,WeatherDisplay:10.37,2013-11-01 17:14:00,
2013-11-01 13:15:00,68.0,58.6,29.75,South,190,7.7,9.2,72,0.00,FEW,,0.40,WeatherDisplay:10.37,2013-11-01 17:15:00,
2013-11-01 13:18:00,68.3,58.1,29.75,SW,214,4.3,8.1,70,0.00,FEW,,0.40,WeatherDisplay:10.37,2013-11-01 17:18:00,
2013-11-01 13:19:00,68.4,57.8,29.75,WNW,288,4.7,8.1,69,0.00,FEW,,0.40,WeatherDisplay:10.37,2013-11-01 17:19:00,
2013-11-01 13:21:00,68.7,59.7,29.75,South,180,5.8,8.1,73,0.00,FEW,,0.40,WeatherDisplay:10.37,2013-11-01 17:21:00,
2013-11-01 13:23:00,69.0,58.8,29.75,SSW,196,6.5,11.5,70,0.00,FEW,,0.40,WeatherDisplay:10.37,2013-11-01 17:23:00,
2013-11-01 13:24:00,69.1,58.9,29.75,SSW,202,5.0,9.2,70,0.00,FEW,,0.40,WeatherDisplay:10.37,2013-11-01 17:24:00,
2013-11-01 13:26:00,69.3,59.1,29.75,South,180,0.6,5.8,70,0.00,FEW,,0.40,WeatherDisplay:10.37,2013-11-01 17:26:00,
2013-11-01 13:28:00,69.4,58.4,29.75,South,182,7.9,11.5,68,0.00,FEW,,0.40,WeatherDisplay:10.37,2013-11-01 17:28:00,
2013-11-01 13:29:00,69.4,58.8,29.75,SSW,206,6.9,15.0,69,0.00,FEW,,0.40,WeatherDisplay:10.37,2013-11-01 17:29:00,
2013-11-01 13:30:00,69.4,58.4,29.75,South,176,6.6,15.0,68,0.00,FEW,,0.40,WeatherDisplay:10.37,2013-11-01 17:30:00,
2013-11-01 13:31:00,69.5,58.1,29.75,SE,144,5.6,9.2,67,0.00,FEW,,0.40,WeatherDisplay:10.37,2013-11-01 17:31:00,
2013-11-01 13:34:00,69.1,56.8,29.74,South,188,8.7,15.0,65,0.00,FEW,,0.40,WeatherDisplay:10.37,2013-11-01 17:34:00,
2013-11-01 13:35:00,69.0,56.7,29.74,SSE,153,6.9,15.0,65,0.00,FEW,,0.40,WeatherDisplay:10.37,2013-11-01 17:35:00,
2013-11-01 13:36:00,68.9,57.1,29.74,SSW,210,7.3,12.7,66,0.00,FEW,,0.40,WeatherDisplay:10.37,2013-11-01 17:36:00,
2013-11-01 13:39:00,68.7,56.5,29.74,South,178,6.3,10.4,65,0.00,FEW,,0.40,WeatherDisplay:10.37,2013-11-01 17:39:00,
2013-11-01 13:40:00,68.7,56.9,29.74,South,171,8.0,11.5,66,0.00,FEW,,0.40,WeatherDisplay:10.37,2013-11-01 17:40:00,
2013-11-01 13:41:00,68.4,56.6,29.74,SSW,202,8.3,16.1,66,0.00,FEW,,0.40,WeatherDisplay:10.37,2013-11-01 17:41:00,
2013-11-01 13:44:00,69.3,57.0,29.74,South,180,10.5,15.0,65,0.00,FEW,,0.40,WeatherDisplay:10.37,2013-11-01 17:44:00,
2013-11-01 13:45:00,69.3,56.2,29.74,South,171,9.6,15.0,63,0.00,FEW,,0.40,WeatherDisplay:10.37,2013-11-01 17:45:00,
2013-11-01 13:46:00,69.3,57.0,29.74,SSE,159,8.8,13.8,65,0.00,FEW,,0.40,WeatherDisplay:10.37,2013-11-01 17:46:00,
2013-11-01 13:50:00,70.2,57.4,29.73,SSE,148,10.1,11.5,64,0.00,FEW,,0.40,WeatherDisplay:10.37,2013-11-01 17:50:00,
2013-11-01 13:53:00,70.3,57.5,29.73,SSE,163,9.6,10.4,64,0.00,FEW,,0.40,WeatherDisplay:10.37,2013-11-01 17:53:00,
2013-11-01 13:55:00,70.4,58.5,29.73,SSE,151,8.5,11.5,66,0.00,FEW,,0.40,WeatherDisplay:10.37,2013-11-01 17:55:00,
2013-11-01 13:58:00,70.6,58.3,29.73,SSE,162,3.5,11.5,65,0.00,FEW,,0.40,WeatherDisplay:10.37,2013-11-01 17:58:00,
2013-11-01 14:00:00,70.8,58.9,29.73,SSE,165,4.8,6.9,66,0.00,FEW,,0.40,WeatherDisplay:10.37,2013-11-01 18:00:00,
2013-11-01 14:01:00,70.9,59.0,29.73,South,188,3.6,6.9,66,0.00,FEW,,0.40,WeatherDisplay:10.37,2013-11-01 18:01:00,
2013-11-01 14:03:00,71.0,57.8,29.73,SSW,206,9.8,13.8,63,0.00,FEW,,0.40,WeatherDisplay:10.37,2013-11-01 18:03:00,
2013-11-01 14:05:00,70.9,59.0,29.73,South,181,6.7,13.8,66,0.00,FEW,,0.40,WeatherDisplay:10.37,2013-11-01 18:05:00,
2013-11-01 14:06:00,70.9,59.4,29.73,SE,146,5.1,13.8,67,0.00,FEW,,0.40,WeatherDisplay:10.37,2013-11-01 18:06:00,
2013-11-01 14:09:00,71.0,57.8,29.73,SE,139,12.4,17.3,63,0.00,FEW,,0.40,WeatherDisplay:10.37,2013-11-01 18:09:00,
2013-11-01 14:10:00,70.8,58.4,29.73,SSE,156,8.1,17.3,65,0.00,FEW,,0.40,WeatherDisplay:10.37,2013-11-01 18:10:00,
2013-11-01 14:11:00,70.8,58.4,29.73,South,172,7.8,17.3,65,0.00,FEW,,0.40,WeatherDisplay:10.37,2013-11-01 18:11:00,
2013-11-01 14:14:00,70.5,57.3,29.72,South,186,8.3,11.5,63,0.00,FEW,,0.40,WeatherDisplay:10.37,2013-11-01 18:14:00,
2013-11-01 14:16:00,70.4,57.6,29.72,South,172,3.0,11.5,64,0.00,FEW,,0.40,WeatherDisplay:10.37,2013-11-01 18:16:00,
2013-11-01 14:21:00,70.5,57.3,29.72,South,188,7.0,10.0,63,0.00,FEW,,0.40,WeatherDisplay:10.37,2013-11-01 18:21:00,
2013-11-01 14:22:00,70.6,58.3,29.72,SSE,148,7.2,11.5,65,0.00,FEW,,0.40,WeatherDisplay:10.37,2013-11-01 18:22:00,
2013-11-01 14:26:00,70.7,57.5,29.72,South,184,7.5,13.8,63,0.00,FEW,,0.40,WeatherDisplay:10.37,2013-11-01 18:26:00,
2013-11-01 14:27:00,70.6,56.9,29.72,South,186,8.3,13.0,62,0.00,FEW,,0.40,WeatherDisplay:10.37,2013-11-01 18:27:00,
2013-11-01 14:31:00,70.3,56.7,29.72,South,186,6.6,11.5,62,0.00,FEW,,0.40,WeatherDisplay:10.37,2013-11-01 18:31:00,
2013-11-01 14:32:00,70.3,57.1,29.72,South,188,7.7,11.5,63,0.00,FEW,,0.40,WeatherDisplay:10.37,2013-11-01 18:32:00,
2013-11-01 14:36:00,70.6,57.4,29.71,SSE,168,8.1,12.7,63,0.00,FEW,,0.40,WeatherDisplay:10.37,2013-11-01 18:36:00,
2013-11-01 14:37:00,70.8,57.6,29.71,SSE,150,8.1,12.7,63,0.00,FEW,,0.40,WeatherDisplay:10.37,2013-11-01 18:37:00,
2013-11-01 14:38:00,70.9,57.7,29.71,South,173,5.3,13.8,63,0.00,FEW,,0.40,WeatherDisplay:10.37,2013-11-01 18:38:00,
2013-11-01 14:41:00,71.4,57.7,29.72,SSE,167,4.6,10.4,62,0.00,FEW,,0.40,WeatherDisplay:10.37,2013-11-01 18:41:00,
2013-11-01 14:42:00,71.5,57.8,29.71,South,176,8.4,10.4,62,0.00,FEW,,0.40,WeatherDisplay:10.37,2013-11-01 18:42:00,
2013-11-01 14:43:00,71.5,57.8,29.71,SE,141,9.5,11.5,62,0.00,FEW,,0.40,WeatherDisplay:10.37,2013-11-01 18:43:00,
2013-11-01 14:45:00,71.6,58.3,29.71,SE,124,7.9,12.7,63,0.00,FEW,,0.40,WeatherDisplay:10.37,2013-11-01 18:45:00,
2013-11-01 14:46:00,71.4,57.7,29.71,SSW,192,8.9,13.0,62,0.00,FEW,,0.40,WeatherDisplay:10.37,2013-11-01 18:46:00,
2013-11-01 14:47:00,71.3,56.7,29.71,SW,223,7.0,12.7,60,0.00,FEW,,0.40,WeatherDisplay:10.37,2013-11-01 18:47:00,
2013-11-01 14:48:00,71.2,56.6,29.71,South,170,4.8,6.9,60,0.00,FEW,,0.40,WeatherDisplay:10.37,2013-11-01 18:48:00,
2013-11-01 14:50:00,71.3,57.2,29.71,South,172,7.3,11.0,61,0.00,FEW,,0.40,WeatherDisplay:10.37,2013-11-01 18:50:00,
2013-11-01 14:51:00,71.3,55.8,29.71,SSW,196,11.5,20.7,58,0.00,FEW,,0.40,WeatherDisplay:10.37,2013-11-01 18:51:00,
2013-11-01 14:52:00,71.3,57.2,29.71,SSW,198,6.3,16.1,61,0.00,FEW,,0.40,WeatherDisplay:10.37,2013-11-01 18:52:00,
2013-11-01 14:53:00,71.3,57.6,29.71,SSW,198,6.6,16.1,62,0.00,FEW,,0.40,WeatherDisplay:10.37,2013-11-01 18:53:00,
2013-11-01 14:54:00,71.2,57.1,29.71,South,172,5.3,11.5,61,0.00,FEW,,0.40,WeatherDisplay:10.37,2013-11-01 18:54:00,
2013-11-01 14:55:00,71.3,57.6,29.71,South,186,8.4,15.0,62,0.00,FEW,,0.40,WeatherDisplay:10.37,2013-11-01 18:55:00,
2013-11-01 14:56:00,71.3,57.6,29.71,SSW,203,8.1,17.3,62,0.00,FEW,,0.40,WeatherDisplay:10.37,2013-11-01 18:56:00,
2013-11-01 14:57:00,71.3,57.2,29.71,South,188,10.0,15.0,61,0.00,FEW,,0.40,WeatherDisplay:10.37,2013-11-01 18:57:00,
2013-11-01 14:58:00,71.2,57.5,29.71,South,190,8.1,16.1,62,0.00,FEW,,0.40,WeatherDisplay:10.37,2013-11-01 18:58:00,
2013-11-01 14:59:00,71.2,57.1,29.71,South,174,9.4,11.5,61,0.00,FEW,,0.40,WeatherDisplay:10.37,2013-11-01 18:59:00,
2013-11-01 15:00:00,71.3,57.6,29.71,SSE,163,5.3,9.2,62,0.00,FEW,,0.40,WeatherDisplay:10.37,2013-11-01 19:00:00,
2013-11-01 15:02:00,71.4,57.2,29.71,South,181,6.4,10.4,61,0.00,SCT,,0.40,WeatherDisplay:10.37,2013-11-01 19:02:00,
2013-11-01 15:03:00,71.3,56.7,29.71,South,186,7.1,11.5,60,0.00,SCT,,0.40,WeatherDisplay:10.37,2013-11-01 19:03:00,
2013-11-01 15:04:00,71.4,56.8,29.71,SE,138,9.3,13.8,60,0.00,SCT,,0.40,WeatherDisplay:10.37,2013-11-01 19:04:00,
2013-11-01 15:06:00,71.5,57.3,29.71,SSE,161,6.4,11.5,61,0.00,SCT,,0.40,WeatherDisplay:10.37,2013-11-01 19:06:00,
2013-11-01 15:07:00,71.7,56.6,29.71,SSW,194,9.8,11.5,59,0.00,SCT,,0.40,WeatherDisplay:10.37,2013-11-01 19:07:00,
2013-11-01 15:08:00,71.7,56.1,29.71,South,189,9.0,11.5,58,0.00,SCT,,0.40,WeatherDisplay:10.37,2013-11-01 19:08:00,
2013-11-01 15:09:00,71.7,56.6,29.71,South,178,9.3,13.0,59,0.00,SCT,,0.40,WeatherDisplay:10.37,2013-11-01 19:09:00,
2013-11-01 15:11:00,71.7,57.5,29.71,South,185,4.5,8.1,61,0.00,SCT,,0.40,WeatherDisplay:10.37,2013-11-01 19:11:00,
2013-11-01 15:12:00,71.8,58.5,29.71,SW,231,5.3,6.9,63,0.00,SCT,,0.40,WeatherDisplay:10.37,2013-11-01 19:12:00,
2013-11-01 15:13:00,71.9,56.8,29.71,SW,220,5.5,14.0,59,0.00,SCT,,0.40,WeatherDisplay:10.37,2013-11-01 19:13:00,
2013-11-01 15:15:00,71.7,56.1,29.70,SW,232,9.7,13.8,58,0.00,SCT,,0.40,WeatherDisplay:10.37,2013-11-01 19:15:00,
2013-11-01 15:16:00,71.6,57.4,29.70,SSE,162,8.8,10.4,61,0.00,SCT,,0.40,WeatherDisplay:10.37,2013-11-01 19:16:00,
2013-11-01 15:17:00,71.6,57.0,29.70,SSE,155,5.2,13.8,60,0.00,SCT,,0.40,WeatherDisplay:10.37,2013-11-01 19:17:00,
2013-11-01 15:18:00,71.6,57.0,29.71,SSE,157,5.5,13.8,60,0.00,SCT,,0.40,WeatherDisplay:10.37,2013-11-01 19:18:00,
2013-11-01 15:19:00,71.6,57.9,29.70,SW,226,8.8,10.4,62,0.00,SCT,,0.40,WeatherDisplay:10.37,2013-11-01 19:19:00,
2013-11-01 15:20:00,71.5,55.9,29.70,SSE,161,12.0,17.3,58,0.00,SCT,,0.40,WeatherDisplay:10.37,2013-11-01 19:20:00,
2013-11-01 15:21:00,71.5,55.0,29.70,SSW,204,10.6,15.0,56,0.00,SCT,,0.40,WeatherDisplay:10.37,2013-11-01 19:21:00,
2013-11-01 15:23:00,71.4,55.4,29.70,South,182,8.2,16.1,57,0.00,SCT,,0.40,WeatherDisplay:10.37,2013-11-01 19:23:00,
2013-11-01 15:24:00,71.3,55.3,29.70,SSW,204,9.1,14.0,57,0.00,SCT,,0.40,WeatherDisplay:10.37,2013-11-01 19:24:00,
2013-11-01 15:25:00,71.2,55.2,29.70,South,187,9.6,13.8,57,0.00,SCT,,0.40,WeatherDisplay:10.37,2013-11-01 19:25:00,
2013-11-01 15:27:00,71.2,55.7,29.70,SSE,150,2.1,4.6,58,0.00,SCT,,0.40,WeatherDisplay:10.37,2013-11-01 19:27:00,
2013-11-01 15:28:00,71.3,56.2,29.70,SSE,165,4.5,5.0,59,0.00,SCT,,0.40,WeatherDisplay:10.37,2013-11-01 19:28:00,
2013-11-01 15:29:00,71.4,56.8,29.70,SSE,150,4.6,6.9,60,0.00,SCT,,0.40,WeatherDisplay:10.37,2013-11-01 19:29:00,
2013-11-01 15:30:00,71.6,56.0,29.70,SE,134,5.9,14.0,58,0.00,SCT,,0.40,WeatherDisplay:10.37,2013-11-01 19:30:00,
2013-11-01 15:31:00,71.7,56.1,29.70,SSE,165,7.9,15.0,58,0.00,SCT,,0.40,WeatherDisplay:10.37,2013-11-01 19:31:00,
2013-11-01 15:32:00,71.7,56.1,29.70,SSE,155,8.2,12.7,58,0.00,SCT,,0.40,WeatherDisplay:10.37,2013-11-01 19:32:00,
2013-11-01 15:33:00,71.8,56.2,29.70,SSE,149,6.3,11.5,58,0.00,SCT,,0.40,WeatherDisplay:10.37,2013-11-01 19:33:00,
2013-11-01 15:34:00,71.8,56.2,29.70,SSE,154,7.6,11.5,58,0.00,SCT,,0.40,WeatherDisplay:10.37,2013-11-01 19:34:00,
2013-11-01 15:35:00,71.9,56.3,29.70,South,183,3.2,5.8,58,0.00,SCT,,0.40,WeatherDisplay:10.37,2013-11-01 19:35:00,
2013-11-01 15:38:00,71.9,55.3,29.70,SW,219,6.8,11.5,56,0.00,SCT,,0.40,WeatherDisplay:10.37,2013-11-01 19:38:00,
2013-11-01 15:39:00,71.7,54.2,29.70,SW,229,6.7,11.5,54,0.00,SCT,,0.40,WeatherDisplay:10.37,2013-11-01 19:39:00,
2013-11-01 15:40:00,71.7,54.7,29.70,South,179,5.0,15.0,55,0.00,SCT,,0.40,WeatherDisplay:10.37,2013-11-01 19:40:00,
2013-11-01 15:43:00,71.6,55.6,29.70,South,184,4.0,8.1,57,0.00,SCT,,0.40,WeatherDisplay:10.37,2013-11-01 19:43:00,
2013-11-01 15:44:00,71.7,56.1,29.70,SSE,160,4.6,8.1,58,0.00,SCT,,0.40,WeatherDisplay:10.37,2013-11-01 19:44:00,
2013-11-01 15:45:00,71.7,55.7,29.70,South,182,4.9,8.1,57,0.00,SCT,,0.40,WeatherDisplay:10.37,2013-11-01 19:45:00,
2013-11-01 15:46:00,71.8,56.2,29.70,South,174,3.7,8.1,58,0.00,SCT,,0.40,WeatherDisplay:10.37,2013-11-01 19:46:00,
2013-11-01 15:48:00,71.7,55.2,29.70,SSW,199,4.6,10.4,56,0.00,SCT,,0.40,WeatherDisplay:10.37,2013-11-01 19:48:00,
2013-11-01 15:49:00,71.7,55.7,29.70,SW,221,2.2,6.9,57,0.00,SCT,,0.40,WeatherDisplay:10.37,2013-11-01 19:49:00,
2013-11-01 15:50:00,71.7,56.1,29.70,SW,221,4.6,6.9,58,0.00,SCT,,0.40,WeatherDisplay:10.37,2013-11-01 19:50:00,
2013-11-01 15:51:00,71.6,54.1,29.69,WSW,238,5.2,8.1,54,0.00,SCT,,0.40,WeatherDisplay:10.37,2013-11-01 19:51:00,
2013-11-01 15:54:00,71.3,54.3,29.69,SSW,213,5.9,9.2,55,0.00,SCT,,0.40,WeatherDisplay:10.37,2013-11-01 19:54:00,
2013-11-01 15:55:00,71.3,54.8,29.69,SSE,165,3.9,5.8,56,0.00,SCT,,0.40,WeatherDisplay:10.37,2013-11-01 19:55:00,
2013-11-01 15:57:00,71.3,54.8,29.69,SW,226,2.1,5.8,56,0.00,SCT,,0.40,WeatherDisplay:10.37,2013-11-01 19:57:00,
2013-11-01 15:59:00,71.5,55.5,29.69,South,185,1.4,5.0,57,0.00,SCT,,0.40,WeatherDisplay:10.37,2013-11-01 19:59:00,
2013-11-01 16:00:00,71.6,56.0,29.69,South,191,8.2,11.0,58,0.00,SCT,,0.40,WeatherDisplay:10.37,2013-11-01 20:00:00,
2013-11-01 16:01:00,71.4,54.4,29.69,SSW,213,7.7,15.0,55,0.00,FEW,,0.40,WeatherDisplay:10.37,2013-11-01 20:01:00,
2013-11-01 16:02:00,71.3,55.3,29.69,South,179,7.9,11.5,57,0.00,FEW,,0.40,WeatherDisplay:10.37,2013-11-01 20:02:00,
2013-11-01 16:04:00,71.4,54.9,29.69,SSW,211,6.1,10.4,56,0.00,FEW,,0.40,WeatherDisplay:10.37,2013-11-01 20:04:00,
2013-11-01 16:06:00,71.5,55.9,29.69,SSE,161,8.1,12.7,58,0.00,FEW,,0.40,WeatherDisplay:10.37,2013-11-01 20:06:00,
2013-11-01 16:07:00,71.5,55.9,29.69,SSW,202,5.8,11.5,58,0.00,FEW,,0.40,WeatherDisplay:10.37,2013-11-01 20:07:00,
2013-11-01 16:09:00,71.6,56.0,29.69,SSW,199,6.8,9.2,58,0.00,FEW,,0.40,WeatherDisplay:10.37,2013-11-01 20:09:00,
2013-11-01 16:10:00,71.5,55.0,29.69,SW,231,9.1,11.5,56,0.00,FEW,,0.40,WeatherDisplay:10.37,2013-11-01 20:10:00,
2013-11-01 16:11:00,71.4,55.4,29.69,South,187,4.7,8.1,57,0.00,FEW,,0.40,WeatherDisplay:10.37,2013-11-01 20:11:00,
2013-11-01 16:12:00,71.4,55.4,29.69,South,188,8.3,11.5,57,0.00,FEW,,0.40,WeatherDisplay:10.37,2013-11-01 20:12:00,
2013-11-01 16:14:00,71.4,54.4,29.69,SSW,192,6.0,9.2,55,0.00,FEW,,0.40,WeatherDisplay:10.37,2013-11-01 20:14:00,
2013-11-01 16:15:00,71.3,55.3,29.69,SSW,204,5.1,8.1,57,0.00,FEW,,0.40,WeatherDisplay:10.37,2013-11-01 20:15:00,
2013-11-01 16:17:00,71.4,55.4,29.69,South,186,5.8,8.1,57,0.00,FEW,,0.40,WeatherDisplay:10.37,2013-11-01 20:17:00,
2013-11-01 16:18:00,71.4,55.4,29.69,South,180,7.6,11.5,57,0.00,FEW,,0.40,WeatherDisplay:10.37,2013-11-01 20:18:00,
2013-11-01 16:19:00,71.5,55.5,29.69,SE,139,4.8,8.1,57,0.00,FEW,,0.40,WeatherDisplay:10.37,2013-11-01 20:19:00,
2013-11-01 16:21:00,71.6,55.6,29.69,South,171,7.7,10.4,57,0.00,FEW,,0.40,WeatherDisplay:10.37,2013-11-01 20:21:00,
2013-11-01 16:22:00,71.5,55.0,29.69,South,183,8.4,16.1,56,0.00,FEW,,0.40,WeatherDisplay:10.37,2013-11-01 20:22:00,
2013-11-01 16:23:00,71.4,55.9,29.69,South,177,8.7,10.4,58,0.00,FEW,,0.40,WeatherDisplay:10.37,2013-11-01 20:23:00,
2013-11-01 16:24:00,71.4,54.9,29.69,SSW,206,7.6,13.8,56,0.00,FEW,,0.40,WeatherDisplay:10.37,2013-11-01 20:24:00,
2013-11-01 16:26:00,71.3,54.3,29.69,SSW,194,7.8,11.5,55,0.00,FEW,,0.40,WeatherDisplay:10.37,2013-11-01 20:26:00,
2013-11-01 16:27:00,71.2,54.7,29.69,SSE,155,8.3,11.5,56,0.00,FEW,,0.40,WeatherDisplay:10.37,2013-11-01 20:27:00,
2013-11-01 16:28:00,71.3,54.8,29.69,South,181,5.8,9.2,56,0.00,FEW,,0.40,WeatherDisplay:10.37,2013-11-01 20:28:00,
2013-11-01 16:29:00,71.3,54.8,29.69,South,186,6.8,9.2,56,0.00,FEW,,0.40,WeatherDisplay:10.37,2013-11-01 20:29:00,
2013-11-01 16:30:00,71.3,54.8,29.69,SSW,205,6.6,11.5,56,0.00,FEW,,0.40,WeatherDisplay:10.37,2013-11-01 20:30:00,
2013-11-01 16:31:00,71.3,54.3,29.69,SSW,196,6.9,12.7,55,0.00,FEW,,0.40,WeatherDisplay:10.37,2013-11-01 20:31:00,
2013-11-01 16:33:00,71.3,54.8,29.69,South,169,5.9,10.0,56,0.00,FEW,,0.40,WeatherDisplay:10.37,2013-11-01 20:33:00,
2013-11-01 16:35:00,71.4,55.4,29.69,South,182,3.3,9.0,57,0.00,FEW,,0.40,WeatherDisplay:10.37,2013-11-01 20:35:00,
2013-11-01 16:36:00,71.4,54.9,29.69,South,189,8.6,13.0,56,0.00,FEW,,0.40,WeatherDisplay:10.37,2013-11-01 20:36:00,
2013-11-01 16:39:00,71.4,55.9,29.69,South,182,3.0,10.4,58,0.00,FEW,,0.40,WeatherDisplay:10.37,2013-11-01 20:39:00,
2013-11-01 16:40:00,71.5,55.5,29.69,SSE,162,5.0,6.9,57,0.00,FEW,,0.40,WeatherDisplay:10.37,2013-11-01 20:40:00,
2013-11-01 16:41:00,71.6,56.0,29.69,SSE,159,7.6,7.6,58,0.00,FEW,,0.40,WeatherDisplay:10.37,2013-11-01 20:41:00,
2013-11-01 16:44:00,71.8,55.3,29.69,SSW,204,7.1,9.2,56,0.00,FEW,,0.40,WeatherDisplay:10.37,2013-11-01 20:44:00,
2013-11-01 16:45:00,71.7,54.2,29.69,SW,219,3.9,7.0,54,0.00,FEW,,0.40,WeatherDisplay:10.37,2013-11-01 20:45:00,
2013-11-01 16:46:00,71.7,55.2,29.69,SSE,167,4.1,6.9,56,0.00,FEW,,0.40,WeatherDisplay:10.37,2013-11-01 20:46:00,
2013-11-01 16:49:00,71.8,55.3,29.69,South,187,1.7,8.1,56,0.00,FEW,,0.40,WeatherDisplay:10.37,2013-11-01 20:49:00,
2013-11-01 16:50:00,71.8,54.8,29.69,South,180,4.0,8.1,55,0.00,FEW,,0.40,WeatherDisplay:10.37,2013-11-01 20:50:00,
2013-11-01 16:51:00,71.7,54.7,29.69,SSW,192,4.8,9.2,55,0.00,FEW,,0.40,WeatherDisplay:10.37,2013-11-01 20:51:00,
2013-11-01 16:54:00,71.5,55.0,29.69,South,178,5.7,10.4,56,0.00,FEW,,0.40,WeatherDisplay:10.37,2013-11-01 20:54:00,
2013-11-01 16:55:00,71.5,55.5,29.69,SSE,153,3.5,11.0,57,0.00,FEW,,0.40,WeatherDisplay:10.37,2013-11-01 20:55:00,
2013-11-01 16:56:00,71.5,54.5,29.69,SSW,201,7.5,11.5,55,0.00,FEW,,0.40,WeatherDisplay:10.37,2013-11-01 20:56:00,
2013-11-01 16:57:00,71.5,55.5,29.69,SSE,166,6.3,11.5,57,0.00,FEW,,0.40,WeatherDisplay:10.37,2013-11-01 20:57:00,
2013-11-01 16:59:00,71.5,55.5,29.69,South,179,9.6,12.7,57,0.00,FEW,,0.40,WeatherDisplay:10.37,2013-11-01 20:59:00,
2013-11-01 17:00:00,71.5,55.0,29.69,South,184,7.6,12.7,56,0.00,FEW,,0.40,WeatherDisplay:10.37,2013-11-01 21:00:00,
2013-11-01 17:02:00,71.3,54.8,29.69,SSW,198,9.8,12.7,56,0.00,FEW,,0.40,WeatherDisplay:10.37,2013-11-01 21:02:00,
2013-11-01 17:03:00,71.2,54.7,29.69,South,177,6.0,10.4,56,0.00,FEW,,0.40,WeatherDisplay:10.37,2013-11-01 21:03:00,
2013-11-01 17:04:00,71.1,55.1,29.69,South,187,9.2,11.5,57,0.00,FEW,,0.40,WeatherDisplay:10.37,2013-11-01 21:04:00,
2013-11-01 17:05:00,71.1,55.1,29.70,South,172,9.1,11.5,57,0.00,FEW,,0.40,WeatherDisplay:10.37,2013-11-01 21:05:00,
2013-11-01 17:06:00,71.1,54.6,29.70,SSW,193,7.2,10.4,56,0.00,FEW,,0.40,WeatherDisplay:10.37,2013-11-01 21:06:00,
2013-11-01 17:07:00,71.0,55.0,29.70,SSW,208,6.5,10.4,57,0.00,FEW,,0.40,WeatherDisplay:10.37,2013-11-01 21:07:00,
2013-11-01 17:08:00,71.0,54.5,29.70,SSW,211,7.4,10.4,56,0.00,FEW,,0.40,WeatherDisplay:10.37,2013-11-01 21:08:00,
2013-11-01 17:10:00,71.0,55.0,29.69,SSW,213,5.7,10.4,57,0.00,FEW,,0.40,WeatherDisplay:10.37,2013-11-01 21:10:00,
2013-11-01 17:11:00,70.9,54.9,29.69,SSE,156,5.4,10.4,57,0.00,FEW,,0.40,WeatherDisplay:10.37,2013-11-01 21:11:00,
2013-11-01 17:13:00,70.9,55.4,29.69,South,173,6.1,10.4,58,0.00,FEW,,0.40,WeatherDisplay:10.37,2013-11-01 21:13:00,
2013-11-01 17:15:00,71.0,55.5,29.70,SSW,204,4.7,6.9,58,0.00,FEW,,0.40,WeatherDisplay:10.37,2013-11-01 21:15:00,
2013-11-01 17:16:00,71.0,55.9,29.70,South,181,6.1,11.5,59,0.00,FEW,,0.40,WeatherDisplay:10.37,2013-11-01 21:16:00,
2013-11-01 17:18:00,71.2,56.1,29.70,South,170,9.1,11.5,59,0.00,FEW,,0.40,WeatherDisplay:10.37,2013-11-01 21:18:00,
2013-11-01 17:19:00,71.3,55.8,29.70,South,173,4.2,11.5,58,0.00,FEW,,0.40,WeatherDisplay:10.37,2013-11-01 21:19:00,
2013-11-01 17:20:00,71.3,55.8,29.70,South,187,3.9,5.8,58,0.00,FEW,,0.40,WeatherDisplay:10.37,2013-11-01 21:20:00,
2013-11-01 17:21:00,71.3,55.3,29.70,South,175,6.7,10.4,57,0.00,FEW,,0.40,WeatherDisplay:10.37,2013-11-01 21:21:00,
2013-11-01 17:23:00,71.2,55.2,29.70,South,185,3.9,6.9,57,0.00,FEW,,0.40,WeatherDisplay:10.37,2013-11-01 21:23:00,
2013-11-01 17:25:00,71.2,56.1,29.70,SSE,153,7.5,11.5,59,0.00,FEW,,0.40,WeatherDisplay:10.37,2013-11-01 21:25:00,
2013-11-01 17:26:00,71.3,55.8,29.70,SSW,202,2.8,8.1,58,0.00,FEW,,0.40,WeatherDisplay:10.37,2013-11-01 21:26:00,
2013-11-01 17:28:00,71.4,55.4,29.70,SSW,193,3.6,8.1,57,0.00,FEW,,0.40,WeatherDisplay:10.37,2013-11-01 21:28:00,
2013-11-01 17:29:00,71.4,55.9,29.70,South,169,2.6,8.1,58,0.00,FEW,,0.40,WeatherDisplay:10.37,2013-11-01 21:29:00,
2013-11-01 17:30:00,71.4,55.9,29.70,SSE,161,4.0,9.2,58,0.00,FEW,,0.40,WeatherDisplay:10.37,2013-11-01 21:30:00,
2013-11-01 17:31:00,71.4,56.3,29.70,South,185,2.7,9.2,59,0.00,FEW,,0.40,WeatherDisplay:10.37,2013-11-01 21:31:00,
2013-11-01 17:32:00,71.4,56.3,29.70,South,185,2.7,9.2,59,0.00,FEW,,0.40,WeatherDisplay:10.37,2013-11-01 21:32:00,
2013-11-01 17:34:00,71.3,55.8,29.70,South,173,4.4,8.1,58,0.00,FEW,,0.40,WeatherDisplay:10.37,2013-11-01 21:34:00,
2013-11-01 17:35:00,71.2,55.7,29.70,South,182,4.4,8.1,58,0.00,FEW,,0.40,WeatherDisplay:10.37,2013-11-01 21:35:00,
2013-11-01 17:36:00,71.1,55.6,29.70,South,189,3.1,4.0,58,0.00,FEW,,0.40,WeatherDisplay:10.37,2013-11-01 21:36:00,
2013-11-01 17:37:00,71.1,56.0,29.70,South,180,4.4,6.9,59,0.00,FEW,,0.40,WeatherDisplay:10.37,2013-11-01 21:37:00,
2013-11-01 17:40:00,70.9,55.9,29.70,South,181,1.9,3.0,59,0.00,FEW,,0.40,WeatherDisplay:10.37,2013-11-01 21:40:00,
2013-11-01 17:42:00,70.8,56.7,29.70,SSW,196,2.4,6.0,61,0.00,FEW,,0.40,WeatherDisplay:10.37,2013-11-01 21:42:00,
2013-11-01 17:45:00,70.6,56.0,29.70,South,177,1.8,9.2,60,0.00,FEW,,0.40,WeatherDisplay:10.37,2013-11-01 21:45:00,
2013-11-01 17:46:00,70.6,56.0,29.70,South,184,0.7,9.2,60,0.00,FEW,,0.40,WeatherDisplay:10.37,2013-11-01 21:46:00,
2013-11-01 17:47:00,70.6,56.0,29.70,South,180,3.4,4.6,60,0.00,FEW,,0.40,WeatherDisplay:10.37,2013-11-01 21:47:00,
2013-11-01 17:51:00,70.8,56.2,29.70,South,172,0.5,8.1,60,0.00,FEW,,0.40,WeatherDisplay:10.37,2013-11-01 21:51:00,
2013-11-01 17:52:00,70.9,56.3,29.70,SSW,210,0.1,1.1,60,0.00,FEW,,0.40,WeatherDisplay:10.37,2013-11-01 21:52:00,
2013-11-01 17:56:00,71.2,56.1,29.70,South,171,1.4,3.5,59,0.00,FEW,,0.40,WeatherDisplay:10.37,2013-11-01 21:56:00,
2013-11-01 17:57:00,71.3,56.2,29.70,SE,135,2.7,6.0,59,0.00,FEW,,0.40,WeatherDisplay:10.37,2013-11-01 21:57:00,
2013-11-01 17:58:00,71.3,56.2,29.70,SSE,149,4.3,5.0,59,0.00,FEW,,0.40,WeatherDisplay:10.37,2013-11-01 21:58:00,
2013-11-01 18:01:00,71.6,56.5,29.70,South,190,1.4,4.6,59,0.00,FEW,,0.40,WeatherDisplay:10.37,2013-11-01 22:01:00,
2013-11-01 18:02:00,71.6,56.5,29.70,South,186,0.7,4.6,59,0.00,FEW,,0.40,WeatherDisplay:10.37,2013-11-01 22:02:00,
2013-11-01 18:03:00,71.7,56.6,29.70,South,178,0.0,1.1,59,0.00,FEW,,0.40,WeatherDisplay:10.37,2013-11-01 22:03:00,
2013-11-01 18:04:00,71.7,57.1,29.70,South,191,1.9,4.0,60,0.00,FEW,,0.40,WeatherDisplay:10.37,2013-11-01 22:04:00,
2013-11-01 18:06:00,71.7,56.1,29.70,SSW,212,1.9,3.5,58,0.00,FEW,,0.40,WeatherDisplay:10.37,2013-11-01 22:06:00,
2013-11-01 18:07:00,71.6,56.0,29.71,SSW,204,2.4,5.8,58,0.00,FEW,,0.40,WeatherDisplay:10.37,2013-11-01 22:07:00,
2013-11-01 18:08:00,71.5,55.9,29.71,South,183,1.4,4.6,58,0.00,FEW,,0.40,WeatherDisplay:10.37,2013-11-01 22:08:00,
2013-11-01 18:09:00,71.4,56.3,29.71,South,169,1.7,3.5,59,0.00,FEW,,0.40,WeatherDisplay:10.37,2013-11-01 22:09:00,
2013-11-01 18:12:00,71.5,56.4,29.71,SSE,168,0.9,4.0,59,0.00,FEW,,0.40,WeatherDisplay:10.37,2013-11-01 22:12:00,
2013-11-01 18:13:00,71.6,56.5,29.71,South,186,1.9,5.0,59,0.00,FEW,,0.40,WeatherDisplay:10.37,2013-11-01 22:13:00,
2013-11-01 18:14:00,71.4,56.3,29.71,SSE,156,0.7,8.1,59,0.00,FEW,,0.40,WeatherDisplay:10.37,2013-11-01 22:14:00,
2013-11-01 18:17:00,71.1,56.5,29.71,SSW,198,2.1,4.6,60,0.00,FEW,,0.40,WeatherDisplay:10.37,2013-11-01 22:17:00,
2013-11-01 18:18:00,71.0,55.9,29.71,SSE,153,2.6,4.6,59,0.00,FEW,,0.40,WeatherDisplay:10.37,2013-11-01 22:18:00,
2013-11-01 18:20:00,70.8,56.2,29.71,South,169,1.6,4.6,60,0.00,FEW,,0.40,WeatherDisplay:10.37,2013-11-01 22:20:00,
2013-11-01 18:22:00,70.5,56.4,29.71,SSE,155,4.2,5.0,61,0.00,FEW,,0.40,WeatherDisplay:10.37,2013-11-01 22:22:00,
2013-11-01 18:23:00,70.4,56.3,29.71,South,178,3.1,6.9,61,0.00,FEW,,0.40,WeatherDisplay:10.37,2013-11-01 22:23:00,
2013-11-01 18:24:00,70.4,56.3,29.71,SSE,157,2.0,6.9,61,0.00,FEW,,0.40,WeatherDisplay:10.37,2013-11-01 22:24:00,
2013-11-01 18:25:00,70.3,55.8,29.71,South,178,5.4,9.2,60,0.00,FEW,,0.40,WeatherDisplay:10.37,2013-11-01 22:25:00,
2013-11-01 18:27:00,70.1,56.0,29.71,SE,146,2.1,5.8,61,0.00,FEW,,0.40,WeatherDisplay:10.37,2013-11-01 22:27:00,
2013-11-01 18:28:00,70.0,55.9,29.71,SSE,163,2.6,4.6,61,0.00,FEW,,0.40,WeatherDisplay:10.37,2013-11-01 22:28:00,
2013-11-01 18:29:00,69.9,55.4,29.71,SSE,164,3.1,4.6,60,0.00,FEW,,0.40,WeatherDisplay:10.37,2013-11-01 22:29:00,
2013-11-01 18:30:00,69.8,56.2,29.71,SSE,157,0.7,2.3,62,0.00,FEW,,0.40,WeatherDisplay:10.37,2013-11-01 22:30:00,
2013-11-01 18:33:00,69.6,56.0,29.71,SSE,164,0.1,1.1,62,0.00,FEW,,0.40,WeatherDisplay:10.37,2013-11-01 22:33:00,
2013-11-01 18:34:00,69.6,56.0,29.71,SSE,164,0.3,2.0,62,0.00,FEW,,0.40,WeatherDisplay:10.37,2013-11-01 22:34:00,
2013-11-01 18:36:00,69.5,56.3,29.72,SE,145,0.2,3.5,63,0.00,FEW,,0.40,WeatherDisplay:10.37,2013-11-01 22:36:00,
2013-11-01 18:39:00,69.4,57.1,29.72,SE,145,0.0,1.1,65,0.00,FEW,,0.40,WeatherDisplay:10.37,2013-11-01 22:39:00,
2013-11-01 18:41:00,69.3,57.0,29.72,SE,145,0.0,0.0,65,0.00,FEW,,0.40,WeatherDisplay:10.37,2013-11-01 22:41:00,
2013-11-01 18:44:00,69.1,57.7,29.73,SE,145,0.0,0.0,67,0.00,FEW,,0.40,WeatherDisplay:10.37,2013-11-01 22:44:00,
2013-11-01 18:45:00,68.8,57.4,29.70,SE,145,0.0,0.0,67,0.00,FEW,,0.40,WeatherDisplay:10.37,2013-11-01 22:45:00,
2013-11-01 18:46:00,68.6,57.2,29.70,SE,145,0.0,0.0,67,0.00,FEW,,0.40,WeatherDisplay:10.37,2013-11-01 22:46:00,
2013-11-01 18:49:00,68.2,57.2,29.72,SE,145,0.0,0.0,68,0.00,FEW,,0.40,WeatherDisplay:10.37,2013-11-01 22:49:00,
2013-11-01 18:50:00,68.1,57.1,29.71,SE,145,0.0,0.0,68,0.00,FEW,,0.40,WeatherDisplay:10.37,2013-11-01 22:50:00,
2013-11-01 18:51:00,68.0,57.0,29.70,SE,145,0.0,0.0,68,0.00,FEW,,0.40,WeatherDisplay:10.37,2013-11-01 22:51:00,
2013-11-01 18:54:00,67.7,56.8,29.72,SE,145,0.0,0.0,68,0.00,FEW,,0.40,WeatherDisplay:10.37,2013-11-01 22:54:00,
2013-11-01 18:55:00,67.7,57.2,29.72,SE,145,0.0,0.0,69,0.00,FEW,,0.40,WeatherDisplay:10.37,2013-11-01 22:55:00,
2013-11-01 18:56:00,67.6,57.5,29.72,SE,145,0.0,0.0,70,0.00,FEW,,0.40,WeatherDisplay:10.37,2013-11-01 22:56:00,
2013-11-01 18:59:00,67.3,56.8,29.73,SE,145,0.0,0.0,69,0.00,FEW,,0.40,WeatherDisplay:10.37,2013-11-01 22:59:00,
2013-11-01 19:00:00,67.3,56.8,29.72,SE,145,0.0,0.0,69,0.00,FEW,,0.40,WeatherDisplay:10.37,2013-11-01 23:00:00,
2013-11-01 19:01:00,67.3,56.8,29.73,SE,145,0.0,0.0,69,0.00,FEW,,0.40,WeatherDisplay:10.37,2013-11-01 23:01:00,
2013-11-01 19:02:00,67.1,57.0,29.73,SE,145,0.0,0.0,70,0.00,FEW,,0.40,WeatherDisplay:10.37,2013-11-01 23:02:00,
2013-11-01 19:04:00,67.0,56.9,29.73,SE,145,0.0,0.0,70,0.00,FEW,,0.40,WeatherDisplay:10.37,2013-11-01 23:04:00,
2013-11-01 19:05:00,67.0,56.9,29.73,SE,145,0.0,0.0,70,0.00,FEW,,0.40,WeatherDisplay:10.37,2013-11-01 23:05:00,
2013-11-01 19:06:00,67.0,56.9,29.73,SE,145,0.0,0.0,70,0.00,FEW,,0.40,WeatherDisplay:10.37,2013-11-01 23:06:00,
2013-11-01 19:07:00,66.9,56.8,29.73,SE,145,0.0,0.0,70,0.00,FEW,,0.40,WeatherDisplay:10.37,2013-11-01 23:07:00,
2013-11-01 19:09:00,66.7,57.0,29.73,SE,145,0.0,0.0,71,0.00,FEW,,0.40,WeatherDisplay:10.37,2013-11-01 23:09:00,
2013-11-01 19:10:00,66.6,56.9,29.73,SE,145,0.0,0.0,71,0.00,FEW,,0.40,WeatherDisplay:10.37,2013-11-01 23:10:00,
2013-11-01 19:11:00,66.5,56.8,29.73,SE,145,0.0,0.0,71,0.00,FEW,,0.40,WeatherDisplay:10.37,2013-11-01 23:11:00,
2013-11-01 19:13:00,66.4,57.1,29.73,SE,145,0.0,0.0,72,0.00,FEW,,0.40,WeatherDisplay:10.37,2013-11-01 23:13:00,
2013-11-01 19:15:00,66.3,56.6,29.73,SE,145,0.0,0.0,71,0.00,FEW,,0.40,WeatherDisplay:10.37,2013-11-01 23:15:00,
2013-11-01 19:16:00,66.3,57.0,29.73,SE,145,0.0,0.0,72,0.00,FEW,,0.40,WeatherDisplay:10.37,2013-11-01 23:16:00,
2013-11-01 19:17:00,66.3,57.0,29.73,SE,145,0.0,0.0,72,0.00,FEW,,0.40,WeatherDisplay:10.37,2013-11-01 23:17:00,
2013-11-01 19:18:00,66.2,56.9,29.73,SE,145,0.0,0.0,72,0.00,FEW,,0.40,WeatherDisplay:10.37,2013-11-01 23:18:00,
2013-11-01 19:20:00,66.1,56.8,29.73,SE,145,0.0,0.0,72,0.00,FEW,,0.40,WeatherDisplay:10.37,2013-11-01 23:20:00,
2013-11-01 19:21:00,66.0,56.7,29.73,SE,145,0.0,0.0,72,0.00,FEW,,0.40,WeatherDisplay:10.37,2013-11-01 23:21:00,
2013-11-01 19:22:00,66.0,56.7,29.73,SE,145,0.0,0.0,72,0.00,FEW,,0.40,WeatherDisplay:10.37,2013-11-01 23:22:00,
2013-11-01 19:23:00,65.9,56.6,29.73,SE,145,0.0,0.0,72,0.00,FEW,,0.40,WeatherDisplay:10.37,2013-11-01 23:23:00,
2013-11-01 19:25:00,65.8,56.5,29.73,SE,145,0.0,0.0,72,0.00,FEW,,0.40,WeatherDisplay:10.37,2013-11-01 23:25:00,
2013-11-01 19:26:00,65.7,56.4,29.73,SE,145,0.0,0.0,72,0.00,FEW,,0.40,WeatherDisplay:10.37,2013-11-01 23:26:00,
2013-11-01 19:27:00,65.6,56.7,29.74,SE,145,0.0,0.0,73,0.00,FEW,,0.40,WeatherDisplay:10.37,2013-11-01 23:27:00,
2013-11-01 19:28:00,65.5,56.2,29.73,SE,145,0.0,1.1,72,0.00,FEW,,0.40,WeatherDisplay:10.37,2013-11-01 23:28:00,
2013-11-01 19:30:00,65.4,55.7,29.74,SE,145,0.0,0.0,71,0.00,FEW,,0.40,WeatherDisplay:10.37,2013-11-01 23:30:00,
2013-11-01 19:31:00,65.5,56.2,29.73,SE,145,0.0,0.0,72,0.00,FEW,,0.40,WeatherDisplay:10.37,2013-11-01 23:31:00,
2013-11-01 19:32:00,65.4,55.4,29.73,SSW,204,1.4,3.5,70,0.00,FEW,,0.40,WeatherDisplay:10.37,2013-11-01 23:32:00,
2013-11-01 19:33:00,65.3,55.7,29.71,SSW,204,2.0,3.5,71,0.00,FEW,,0.40,WeatherDisplay:10.37,2013-11-01 23:33:00,
2013-11-01 19:34:00,65.4,55.4,29.70,SSW,203,1.7,3.5,70,0.00,FEW,,0.40,WeatherDisplay:10.37,2013-11-01 23:34:00,
2013-11-01 19:35:00,65.4,55.4,29.69,SSW,203,0.0,0.0,70,0.00,FEW,,0.40,WeatherDisplay:10.37,2013-11-01 23:35:00,
2013-11-01 19:36:00,65.3,55.7,29.69,SSW,203,0.1,1.1,71,0.00,FEW,,0.40,WeatherDisplay:10.37,2013-11-01 23:36:00,
2013-11-01 19:37:00,65.4,55.4,29.69,SSW,203,0.6,2.3,70,0.00,FEW,,0.40,WeatherDisplay:10.37,2013-11-01 23:37:00,
2013-11-01 19:38:00,65.5,55.1,29.70,SW,223,1.8,3.5,69,0.00,FEW,,0.40,WeatherDisplay:10.37,2013-11-01 23:38:00,
2013-11-01 19:39:00,65.3,54.9,29.74,SW,222,0.0,3.5,69,0.00,FEW,,0.40,WeatherDisplay:10.37,2013-11-01 23:39:00,
2013-11-01 19:40:00,65.1,54.3,29.75,SW,222,0.0,0.0,68,0.00,FEW,,0.40,WeatherDisplay:10.37,2013-11-01 23:40:00,
2013-11-01 19:41:00,65.1,54.3,29.68,SW,214,0.0,0.0,68,0.00,FEW,,0.40,WeatherDisplay:10.37,2013-11-01 23:41:00,
2013-11-01 19:42:00,65.3,54.5,29.75,SW,214,0.0,0.0,68,0.00,FEW,,0.40,WeatherDisplay:10.37,2013-11-01 23:42:00,
2013-11-01 19:44:00,65.1,54.3,29.74,SW,214,0.0,0.0,68,0.00,FEW,,0.40,WeatherDisplay:10.37,2013-11-01 23:44:00,
2013-11-01 19:45:00,65.1,54.7,29.74,SW,214,0.0,0.0,69,0.00,FEW,,0.40,WeatherDisplay:10.37,2013-11-01 23:45:00,
2013-11-01 19:46:00,64.8,54.8,29.74,SW,214,0.0,0.0,70,0.00,FEW,,0.40,WeatherDisplay:10.37,2013-11-01 23:46:00,
2013-11-01 19:47:00,65.0,54.2,29.74,SW,214,0.0,0.0,68,0.00,FEW,,0.40,WeatherDisplay:10.37,2013-11-01 23:47:00,
2013-11-01 19:49:00,64.9,54.9,29.74,SSW,210,1.6,3.5,70,0.00,FEW,,0.40,WeatherDisplay:10.37,2013-11-01 23:49:00,
2013-11-01 19:50:00,64.9,54.5,29.74,SSW,209,1.1,3.5,69,0.00,FEW,,0.40,WeatherDisplay:10.37,2013-11-01 23:50:00,
2013-11-01 19:51:00,64.8,54.4,29.74,SSW,209,0.0,0.0,69,0.00,FEW,,0.40,WeatherDisplay:10.37,2013-11-01 23:51:00,
2013-11-01 19:52:00,64.8,54.4,29.74,SSW,210,0.0,0.0,69,0.00,FEW,,0.40,WeatherDisplay:10.37,2013-11-01 23:52:00,
2013-11-01 19:53:00,64.8,54.0,29.74,SSW,210,0.7,2.3,68,0.00,FEW,,0.40,WeatherDisplay:10.37,2013-11-01 23:53:00,
2013-11-01 19:54:00,64.7,54.3,29.74,SSW,210,0.0,0.0,69,0.00,FEW,,0.40,WeatherDisplay:10.37,2013-11-01 23:54:00,
2013-11-01 19:56:00,64.7,54.7,29.74,SSW,210,0.0,0.0,70,0.00,FEW,,0.40,WeatherDisplay:10.37,2013-11-01 23:56:00,
2013-11-01 19:57:00,64.7,54.3,29.75,SSW,210,0.1,1.1,69,0.00,FEW,,0.40,WeatherDisplay:10.37,2013-11-01 23:57:00,
2013-11-01 19:58:00,64.6,54.2,29.75,SSW,210,0.0,0.0,69,0.00,FEW,,0.40,WeatherDisplay:10.37,2013-11-01 23:58:00,
2013-11-01 20:00:00,64.5,54.1,29.75,SSW,210,0.0,0.0,69,0.00,FEW,,0.40,WeatherDisplay:10.37,2013-11-02 00:00:00,
2013-11-01 20:01:00,64.3,54.7,29.75,SSW,210,0.0,0.0,71,0.00,FEW,,0.40,WeatherDisplay:10.37,2013-11-02 00:01:00,
2013-11-01 20:03:00,64.3,54.3,29.75,SSW,210,0.0,0.0,70,0.00,FEW,,0.40,WeatherDisplay:10.37,2013-11-02 00:03:00,
2013-11-01 20:05:00,64.2,53.4,29.75,SSW,207,0.0,0.0,68,0.00,FEW,,0.40,WeatherDisplay:10.37,2013-11-02 00:05:00,
2013-11-01 20:06:00,64.2,53.4,29.75,SSW,210,1.3,0.0,68,0.00,FEW,,0.40,WeatherDisplay:10.37,2013-11-02 00:06:00,
2013-11-01 20:07:00,64.2,53.4,29.75,SSW,207,0.4,4.6,68,0.00,FEW,,0.40,WeatherDisplay:10.37,2013-11-02 00:07:00,
2013-11-01 20:08:00,64.2,53.4,29.75,SSW,204,0.4,2.3,68,0.00,FEW,,0.40,WeatherDisplay:10.37,2013-11-02 00:08:00,
2013-11-01 20:11:00,64.0,53.6,29.75,SSW,204,0.0,0.0,69,0.00,FEW,,0.40,WeatherDisplay:10.37,2013-11-02 00:11:00,
2013-11-01 20:12:00,63.9,53.5,29.75,SSW,207,0.6,3.5,69,0.00,FEW,,0.40,WeatherDisplay:10.37,2013-11-02 00:12:00,
2013-11-01 20:13:00,63.9,53.1,29.75,SSW,207,0.0,3.5,68,0.00,FEW,,0.40,WeatherDisplay:10.37,2013-11-02 00:13:00,
2013-11-01 20:16:00,63.8,52.6,29.75,SW,214,2.1,5.8,67,0.00,FEW,,0.40,WeatherDisplay:10.37,2013-11-02 00:16:00,
2013-11-01 20:17:00,63.8,53.0,29.75,SW,215,1.3,3.5,68,0.00,FEW,,0.40,WeatherDisplay:10.37,2013-11-02 00:17:00,
2013-11-01 20:18:00,63.7,52.5,29.75,SW,215,0.0,2.3,67,0.00,FEW,,0.40,WeatherDisplay:10.37,2013-11-02 00:18:00,
2013-11-01 20:19:00,63.7,52.5,29.75,SW,214,0.0,2.3,67,0.00,FEW,,0.40,WeatherDisplay:10.37,2013-11-02 00:19:00,
2013-11-01 20:21:00,63.6,52.4,29.75,SSW,208,2.0,4.6,67,0.00,FEW,,0.40,WeatherDisplay:10.37,2013-11-02 00:21:00,
2013-11-01 20:23:00,63.6,52.4,29.75,SSW,208,0.1,3.5,67,0.00,FEW,,0.40,WeatherDisplay:10.37,2013-11-02 00:23:00,
2013-11-01 20:24:00,63.6,52.0,29.75,SSW,208,0.7,3.5,66,0.00,FEW,,0.40,WeatherDisplay:10.37,2013-11-02 00:24:00,
2013-11-01 20:25:00,63.6,52.0,29.75,SSW,207,0.7,3.5,66,0.00,FEW,,0.40,WeatherDisplay:10.37,2013-11-02 00:25:00,
2013-11-01 20:26:00,63.6,52.4,29.75,SSW,207,0.3,3.5,67,0.00,FEW,,0.40,WeatherDisplay:10.37,2013-11-02 00:26:00,
2013-11-01 20:28:00,63.5,52.3,29.75,SSW,208,0.1,3.0,67,0.00,FEW,,0.40,WeatherDisplay:10.37,2013-11-02 00:28:00,
2013-11-01 20:29:00,63.5,51.9,29.76,SSW,209,0.4,3.5,66,0.00,FEW,,0.40,WeatherDisplay:10.37,2013-11-02 00:29:00,
2013-11-01 20:30:00,63.5,52.3,29.76,SSW,209,0.0,0.0,67,0.00,FEW,,0.40,WeatherDisplay:10.37,2013-11-02 00:30:00,
2013-11-01 20:31:00,63.5,51.9,29.75,SSW,211,0.5,3.5,66,0.00,FEW,,0.40,WeatherDisplay:10.37,2013-11-02 00:31:00,
2013-11-01 20:33:00,63.5,52.3,29.75,SSW,211,0.0,0.0,67,0.00,FEW,,0.40,WeatherDisplay:10.37,2013-11-02 00:33:00,
2013-11-01 20:34:00,63.5,51.9,29.75,SSW,211,0.0,0.0,66,0.00,FEW,,0.40,WeatherDisplay:10.37,2013-11-02 00:34:00,
2013-11-01 20:35:00,63.4,52.7,29.75,SW,220,0.1,2.0,68,0.00,FEW,,0.40,WeatherDisplay:10.37,2013-11-02 00:35:00,
2013-11-01 20:36:00,63.4,52.2,29.76,SW,227,0.2,3.5,67,0.00,FEW,,0.40,WeatherDisplay:10.37,2013-11-02 00:36:00,
2013-11-01 20:38:00,63.3,52.2,29.76,SW,227,0.0,0.0,67,0.00,FEW,,0.40,WeatherDisplay:10.37,2013-11-02 00:38:00,
2013-11-01 20:39:00,63.3,52.2,29.75,SW,227,0.0,0.0,67,0.00,FEW,,0.40,WeatherDisplay:10.37,2013-11-02 00:39:00,
2013-11-01 20:40:00,63.3,52.6,29.76,SW,228,0.0,0.0,68,0.00,FEW,,0.40,WeatherDisplay:10.37,2013-11-02 00:40:00,
2013-11-01 20:41:00,63.2,52.5,29.75,SW,227,0.0,0.0,68,0.00,FEW,,0.40,WeatherDisplay:10.37,2013-11-02 00:41:00,
2013-11-01 20:43:00,63.0,51.9,29.76,SW,225,1.1,3.5,67,0.00,FEW,,0.40,WeatherDisplay:10.37,2013-11-02 00:43:00,
2013-11-01 20:44:00,63.1,51.6,29.75,SW,225,0.0,3.5,66,0.00,FEW,,0.40,WeatherDisplay:10.37,2013-11-02 00:44:00,
2013-11-01 20:45:00,63.1,51.6,29.76,SW,225,0.0,0.0,66,0.00,FEW,,0.40,WeatherDisplay:10.37,2013-11-02 00:45:00,
2013-11-01 20:46:00,63.1,51.6,29.76,SW,225,0.0,0.0,66,0.00,FEW,,0.40,WeatherDisplay:10.37,2013-11-02 00:46:00,
2013-11-01 20:48:00,63.1,52.4,29.75,SW,225,0.0,0.0,68,0.00,FEW,,0.40,WeatherDisplay:10.37,2013-11-02 00:48:00,
2013-11-01 20:49:00,63.1,52.0,29.76,SW,225,0.0,0.0,67,0.00,FEW,,0.40,WeatherDisplay:10.37,2013-11-02 00:49:00,
2013-11-01 20:50:00,63.0,51.9,29.76,SW,225,0.0,0.0,67,0.00,FEW,,0.40,WeatherDisplay:10.37,2013-11-02 00:50:00,
2013-11-01 20:51:00,63.0,51.9,29.75,SW,225,0.0,0.0,67,0.00,FEW,,0.40,WeatherDisplay:10.37,2013-11-02 00:51:00,
2013-11-01 20:53:00,62.9,52.2,29.76,SW,225,0.0,0.0,68,0.00,FEW,,0.40,WeatherDisplay:10.37,2013-11-02 00:53:00,
2013-11-01 20:54:00,62.8,52.1,29.76,SW,225,0.0,0.0,68,0.00,FEW,,0.40,WeatherDisplay:10.37,2013-11-02 00:54:00,
2013-11-01 20:55:00,62.8,51.7,29.75,SW,225,0.0,0.0,67,0.00,FEW,,0.40,WeatherDisplay:10.37,2013-11-02 00:55:00,
2013-11-01 20:56:00,62.8,52.1,29.75,SW,225,0.0,0.0,68,0.00,FEW,,0.40,WeatherDisplay:10.37,2013-11-02 00:56:00,
2013-11-01 20:58:00,62.6,51.9,29.76,SW,225,0.0,3.5,68,0.00,FEW,,0.40,WeatherDisplay:10.37,2013-11-02 00:58:00,
2013-11-01 20:59:00,62.6,52.3,29.76,SW,225,0.0,3.5,69,0.00,FEW,,0.40,WeatherDisplay:10.37,2013-11-02 00:59:00,
2013-11-01 21:01:00,62.5,51.8,29.76,SW,226,0.0,0.0,68,0.00,CLR,,0.40,WeatherDisplay:10.37,2013-11-02 01:01:00,
2013-11-01 21:02:00,62.4,51.7,29.76,SW,226,0.0,0.0,68,0.00,CLR,,0.40,WeatherDisplay:10.37,2013-11-02 01:02:00,
2013-11-01 21:04:00,62.4,51.3,29.76,SW,225,0.0,0.0,67,0.00,CLR,,0.40,WeatherDisplay:10.37,2013-11-02 01:04:00,
2013-11-01 21:05:00,62.5,51.8,29.76,SW,225,0.0,0.0,68,0.00,CLR,,0.40,WeatherDisplay:10.37,2013-11-02 01:05:00,
2013-11-01 21:06:00,62.5,51.4,29.76,SW,226,0.0,1.1,67,0.00,CLR,,0.40,WeatherDisplay:10.37,2013-11-02 01:06:00,
2013-11-01 21:07:00,62.6,51.5,29.76,SW,226,0.0,1.1,67,0.00,CLR,,0.40,WeatherDisplay:10.37,2013-11-02 01:07:00,
2013-11-01 21:09:00,62.5,51.8,29.76,SW,226,0.0,0.0,68,0.00,CLR,,0.40,WeatherDisplay:10.37,2013-11-02 01:09:00,
2013-11-01 21:10:00,62.5,51.8,29.76,SW,225,0.0,0.0,68,0.00,CLR,,0.40,WeatherDisplay:10.37,2013-11-02 01:10:00,
2013-11-01 21:11:00,62.4,52.1,29.76,SW,225,0.0,0.0,69,0.00,CLR,,0.40,WeatherDisplay:10.37,2013-11-02 01:11:00,
2013-11-01 21:12:00,62.4,51.3,29.76,SW,226,0.0,0.0,67,0.00,CLR,,0.40,WeatherDisplay:10.37,2013-11-02 01:12:00,
2013-11-01 21:14:00,62.4,51.7,29.76,SW,225,0.0,0.0,68,0.00,CLR,,0.40,WeatherDisplay:10.37,2013-11-02 01:14:00,
2013-11-01 21:15:00,62.4,51.3,29.76,SW,225,0.1,1.1,67,0.00,CLR,,0.40,WeatherDisplay:10.37,2013-11-02 01:15:00,
2013-11-01 21:16:00,62.4,51.7,29.76,SW,226,0.0,0.0,68,0.00,CLR,,0.40,WeatherDisplay:10.37,2013-11-02 01:16:00,
2013-11-01 21:17:00,62.4,51.7,29.76,SW,225,0.0,0.0,68,0.00,CLR,,0.40,WeatherDisplay:10.37,2013-11-02 01:17:00,
2013-11-01 21:18:00,62.4,51.7,29.76,SW,225,0.0,0.0,68,0.00,CLR,,0.40,WeatherDisplay:10.37,2013-11-02 01:18:00,
2013-11-01 21:19:00,62.4,51.7,29.76,West,266,0.2,3.5,68,0.00,CLR,,0.40,WeatherDisplay:10.37,2013-11-02 01:19:00,
2013-11-01 21:20:00,62.5,51.8,29.76,West,266,0.0,0.0,68,0.00,CLR,,0.40,WeatherDisplay:10.37,2013-11-02 01:20:00,
2013-11-01 21:22:00,62.5,51.4,29.76,West,266,1.1,3.5,67,0.00,CLR,,0.40,WeatherDisplay:10.37,2013-11-02 01:22:00,
2013-11-01 21:23:00,62.5,51.0,29.76,West,265,0.0,3.5,66,0.00,CLR,,0.40,WeatherDisplay:10.37,2013-11-02 01:23:00,
2013-11-01 21:24:00,62.5,51.4,29.76,SSW,196,2.3,3.5,67,0.00,CLR,,0.40,WeatherDisplay:10.37,2013-11-02 01:24:00,
2013-11-01 21:25:00,62.4,51.3,29.76,SW,214,2.1,3.5,67,0.00,CLR,,0.40,WeatherDisplay:10.37,2013-11-02 01:25:00,
2013-11-01 21:27:00,62.4,51.3,29.76,SW,214,0.7,3.5,67,0.00,CLR,,0.40,WeatherDisplay:10.37,2013-11-02 01:27:00,
2013-11-01 21:28:00,62.4,50.9,29.76,SW,214,0.5,2.3,66,0.00,CLR,,0.40,WeatherDisplay:10.37,2013-11-02 01:28:00,
2013-11-01 21:29:00,62.3,51.2,29.76,SW,214,0.9,2.3,67,0.00,CLR,,0.40,WeatherDisplay:10.37,2013-11-02 01:29:00,
2013-11-01 21:31:00,62.3,51.2,29.76,SW,214,0.0,2.3,67,0.00,CLR,,0.40,WeatherDisplay:10.37,2013-11-02 01:31:00,
2013-11-01 21:33:00,62.3,51.2,29.76,SW,224,1.0,1.0,67,0.00,CLR,,0.40,WeatherDisplay:10.37,2013-11-02 01:33:00,
2013-11-01 21:34:00,62.2,50.7,29.76,West,272,2.4,3.5,66,0.00,CLR,,0.40,WeatherDisplay:10.37,2013-11-02 01:34:00,
2013-11-01 21:36:00,62.2,51.1,29.76,West,272,0.6,3.5,67,0.00,CLR,,0.40,WeatherDisplay:10.37,2013-11-02 01:36:00,
2013-11-01 21:38:00,62.2,51.5,29.76,West,272,0.0,0.0,68,0.00,CLR,,0.40,WeatherDisplay:10.37,2013-11-02 01:38:00,
2013-11-01 21:39:00,62.2,51.1,29.77,West,272,0.0,0.0,67,0.00,CLR,,0.40,WeatherDisplay:10.37,2013-11-02 01:39:00,
2013-11-01 21:40:00,62.2,51.5,29.77,West,272,0.0,0.0,68,0.00,CLR,,0.40,WeatherDisplay:10.37,2013-11-02 01:40:00,
2013-11-01 21:41:00,62.1,51.0,29.77,West,272,1.4,1.4,67,0.00,CLR,,0.40,WeatherDisplay:10.37,2013-11-02 01:41:00,
2013-11-01 21:43:00,62.1,51.4,29.77,West,272,0.0,0.0,68,0.00,CLR,,0.40,WeatherDisplay:10.37,2013-11-02 01:43:00,
2013-11-01 21:44:00,62.0,50.9,29.77,West,272,0.0,0.0,67,0.00,CLR,,0.40,WeatherDisplay:10.37,2013-11-02 01:44:00,
2013-11-01 21:45:00,62.0,51.3,29.77,West,272,0.0,0.0,68,0.00,CLR,,0.40,WeatherDisplay:10.37,2013-11-02 01:45:00,
2013-11-01 21:46:00,62.0,51.3,29.77,West,272,0.0,0.0,68,0.00,CLR,,0.40,WeatherDisplay:10.37,2013-11-02 01:46:00,
2013-11-01 21:48:00,61.9,51.2,29.77,West,272,0.0,0.0,68,0.00,CLR,,0.40,WeatherDisplay:10.37,2013-11-02 01:48:00,
2013-11-01 21:49:00,61.8,51.1,29.77,West,272,0.0,0.0,68,0.00,CLR,,0.40,WeatherDisplay:10.37,2013-11-02 01:49:00,
2013-11-01 21:50:00,61.8,51.1,29.77,West,271,0.0,0.0,68,0.00,CLR,,0.40,WeatherDisplay:10.37,2013-11-02 01:50:00,
2013-11-01 21:51:00,61.8,51.1,29.77,West,271,0.0,0.0,68,0.00,CLR,,0.40,WeatherDisplay:10.37,2013-11-02 01:51:00,
2013-11-01 21:53:00,61.7,51.4,29.77,West,272,0.1,1.1,69,0.00,CLR,,0.40,WeatherDisplay:10.37,2013-11-02 01:53:00,
2013-11-01 21:54:00,61.6,50.9,29.77,West,272,0.0,1.1,68,0.00,CLR,,0.40,WeatherDisplay:10.37,2013-11-02 01:54:00,
2013-11-01 21:55:00,61.5,50.8,29.77,West,272,0.0,0.0,68,0.00,CLR,,0.40,WeatherDisplay:10.37,2013-11-02 01:55:00,
2013-11-01 21:56:00,61.5,51.2,29.77,West,271,0.0,0.0,69,0.00,CLR,,0.40,WeatherDisplay:10.37,2013-11-02 01:56:00,
2013-11-01 21:58:00,61.4,51.5,29.77,West,271,0.0,0.0,70,0.00,CLR,,0.40,WeatherDisplay:10.37,2013-11-02 01:58:00,
2013-11-01 21:59:00,61.3,51.0,29.77,West,271,0.0,0.0,69,0.00,CLR,,0.40,WeatherDisplay:10.37,2013-11-02 01:59:00,
2013-11-01 22:01:00,61.2,50.9,29.77,West,271,0.0,0.0,69,0.00,CLR,,0.40,WeatherDisplay:10.37,2013-11-02 02:01:00,
2013-11-01 22:03:00,61.0,51.5,29.78,West,271,0.0,0.0,71,0.00,CLR,,0.40,WeatherDisplay:10.37,2013-11-02 02:03:00,
2013-11-01 22:04:00,60.9,51.0,29.78,West,272,0.0,0.0,70,0.00,CLR,,0.40,WeatherDisplay:10.37,2013-11-02 02:04:00,
2013-11-01 22:05:00,60.9,51.0,29.77,West,272,0.0,0.0,70,0.00,CLR,,0.40,WeatherDisplay:10.37,2013-11-02 02:05:00,
2013-11-01 22:06:00,60.9,50.7,29.77,West,272,0.0,0.0,69,0.00,CLR,,0.40,WeatherDisplay:10.37,2013-11-02 02:06:00,
2013-11-01 22:08:00,60.8,51.0,29.77,West,271,0.0,0.0,70,0.00,CLR,,0.40,WeatherDisplay:10.37,2013-11-02 02:08:00,
2013-11-01 22:09:00,60.7,51.2,29.77,West,271,0.0,0.0,71,0.00,CLR,,0.40,WeatherDisplay:10.37,2013-11-02 02:09:00,
2013-11-01 22:10:00,60.6,50.8,29.77,West,272,0.0,0.0,70,0.00,CLR,,0.40,WeatherDisplay:10.37,2013-11-02 02:10:00,
2013-11-01 22:11:00,60.6,51.1,29.78,West,272,0.0,0.0,71,0.00,CLR,,0.40,WeatherDisplay:10.37,2013-11-02 02:11:00,
2013-11-01 22:13:00,60.3,50.9,29.78,West,272,0.0,0.0,71,0.00,CLR,,0.40,WeatherDisplay:10.37,2013-11-02 02:13:00,
2013-11-01 22:15:00,60.3,51.2,29.78,West,271,0.9,2.3,72,0.00,CLR,,0.40,WeatherDisplay:10.37,2013-11-02 02:15:00,
2013-11-01 22:16:00,60.2,51.1,29.78,West,271,0.0,1.1,72,0.00,CLR,,0.40,WeatherDisplay:10.37,2013-11-02 02:16:00,
2013-11-01 22:17:00,60.2,50.8,29.78,West,272,0.5,2.3,71,0.00,CLR,,0.40,WeatherDisplay:10.37,2013-11-02 02:17:00,
2013-11-01 22:18:00,60.1,51.4,29.78,West,271,0.0,2.3,73,0.00,CLR,,0.40,WeatherDisplay:10.37,2013-11-02 02:18:00,
2013-11-01 22:20:00,60.0,50.9,29.78,West,271,0.0,0.0,72,0.00,CLR,,0.40,WeatherDisplay:10.37,2013-11-02 02:20:00,
2013-11-01 22:21:00,60.0,51.3,29.78,West,271,0.0,0.0,73,0.00,CLR,,0.40,WeatherDisplay:10.37,2013-11-02 02:21:00,
2013-11-01 22:22:00,59.9,50.8,29.78,West,271,0.0,0.0,72,0.00,CLR,,0.40,WeatherDisplay:10.37,2013-11-02 02:22:00,
2013-11-01 22:23:00,59.9,50.8,29.78,West,271,0.0,0.0,72,0.00,CLR,,0.40,WeatherDisplay:10.37,2013-11-02 02:23:00,
2013-11-01 22:25:00,59.8,50.8,29.78,West,271,0.0,0.0,72,0.00,CLR,,0.40,WeatherDisplay:10.37,2013-11-02 02:25:00,
2013-11-01 22:26:00,59.8,50.8,29.78,West,271,0.0,0.0,72,0.00,CLR,,0.40,WeatherDisplay:10.37,2013-11-02 02:26:00,
2013-11-01 22:27:00,59.7,50.7,29.78,West,272,0.0,0.0,72,0.00,CLR,,0.40,WeatherDisplay:10.37,2013-11-02 02:27:00,
2013-11-01 22:28:00,59.7,51.0,29.78,West,272,0.0,0.0,73,0.00,CLR,,0.40,WeatherDisplay:10.37,2013-11-02 02:28:00,
2013-11-01 22:31:00,59.6,50.9,29.79,West,271,0.0,0.0,73,0.00,CLR,,0.40,WeatherDisplay:10.37,2013-11-02 02:31:00,
2013-11-01 22:32:00,59.6,51.3,29.78,West,271,0.0,0.0,74,0.00,CLR,,0.40,WeatherDisplay:10.37,2013-11-02 02:32:00,
2013-11-01 22:33:00,59.5,51.6,29.78,West,271,0.0,0.0,75,0.00,CLR,,0.40,WeatherDisplay:10.37,2013-11-02 02:33:00,
2013-11-01 22:34:00,59.5,51.6,29.78,West,272,0.0,0.0,75,0.00,CLR,,0.40,WeatherDisplay:10.37,2013-11-02 02:34:00,
2013-11-01 22:36:00,59.5,51.6,29.78,West,271,0.0,0.0,75,0.00,CLR,,0.40,WeatherDisplay:10.37,2013-11-02 02:36:00,
2013-11-01 22:37:00,59.5,51.6,29.78,West,271,0.0,0.0,75,0.00,CLR,,0.40,WeatherDisplay:10.37,2013-11-02 02:37:00,
2013-11-01 22:39:00,59.4,51.5,29.79,West,271,0.0,0.0,75,0.00,CLR,,0.40,WeatherDisplay:10.37,2013-11-02 02:39:00,
2013-11-01 22:41:00,59.3,51.7,29.79,West,272,0.0,0.0,76,0.00,CLR,,0.40,WeatherDisplay:10.37,2013-11-02 02:41:00,
2013-11-01 22:42:00,59.3,51.4,29.78,West,271,0.0,0.0,75,0.00,CLR,,0.40,WeatherDisplay:10.37,2013-11-02 02:42:00,
2013-11-01 22:44:00,59.2,51.6,29.79,West,271,0.0,0.0,76,0.00,CLR,,0.40,WeatherDisplay:10.37,2013-11-02 02:44:00,
2013-11-01 22:45:00,59.2,51.6,29.79,West,271,0.0,0.0,76,0.00,CLR,,0.40,WeatherDisplay:10.37,2013-11-02 02:45:00,
2013-11-01 22:46:00,59.1,51.5,29.79,West,271,0.0,0.0,76,0.00,CLR,,0.40,WeatherDisplay:10.37,2013-11-02 02:46:00,
2013-11-01 22:47:00,59.1,51.9,29.79,West,272,0.0,0.0,77,0.00,CLR,,0.40,WeatherDisplay:10.37,2013-11-02 02:47:00,
2013-11-01 22:48:00,59.1,51.9,29.79,West,271,0.0,0.0,77,0.00,CLR,,0.40,WeatherDisplay:10.37,2013-11-02 02:48:00,
2013-11-01 22:49:00,59.1,51.5,29.79,West,271,0.0,0.0,76,0.00,CLR,,0.40,WeatherDisplay:10.37,2013-11-02 02:49:00,
2013-11-01 22:50:00,59.0,51.8,29.79,West,272,0.0,0.0,77,0.00,CLR,,0.40,WeatherDisplay:10.37,2013-11-02 02:50:00,
2013-11-01 22:52:00,58.9,51.7,29.79,West,272,0.0,0.0,77,0.00,CLR,,0.40,WeatherDisplay:10.37,2013-11-02 02:52:00,
2013-11-01 22:53:00,58.8,51.6,29.79,West,272,0.0,0.0,77,0.00,CLR,,0.40,WeatherDisplay:10.37,2013-11-02 02:53:00,
2013-11-01 22:54:00,58.7,51.5,29.79,West,271,0.0,0.0,77,0.00,CLR,,0.40,WeatherDisplay:10.37,2013-11-02 02:54:00,
2013-11-01 22:56:00,58.6,51.8,29.79,West,271,0.0,0.0,78,0.00,CLR,,0.40,WeatherDisplay:10.37,2013-11-02 02:56:00,
2013-11-01 22:57:00,58.6,51.8,29.79,West,272,0.0,0.0,78,0.00,CLR,,0.40,WeatherDisplay:10.37,2013-11-02 02:57:00,
2013-11-01 22:58:00,58.5,51.7,29.79,West,271,0.0,0.0,78,0.00,CLR,,0.40,WeatherDisplay:10.37,2013-11-02 02:58:00,
2013-11-01 22:59:00,58.4,51.6,29.79,West,271,0.0,0.0,78,0.00,CLR,,0.40,WeatherDisplay:10.37,2013-11-02 02:59:00,
2013-11-01 23:00:00,58.4,51.6,29.79,West,272,0.0,0.0,78,0.00,CLR,,0.40,WeatherDisplay:10.37,2013-11-02 03:00:00,
2013-11-01 23:01:00,58.2,51.4,29.79,West,271,0.0,0.0,78,0.00,CLR,,0.40,WeatherDisplay:10.37,2013-11-02 03:01:00,
2013-11-01 23:02:00,58.1,51.3,29.79,West,271,0.0,0.0,78,0.00,CLR,,0.40,WeatherDisplay:10.37,2013-11-02 03:02:00,
2013-11-01 23:03:00,58.0,51.5,29.79,West,271,0.0,0.0,79,0.00,CLR,,0.40,WeatherDisplay:10.37,2013-11-02 03:03:00,
2013-11-01 23:04:00,57.1,50.6,29.79,West,271,0.0,0.0,79,0.00,CLR,,0.40,WeatherDisplay:10.37,2013-11-02 03:04:00,
2013-11-01 23:05:00,58.3,51.8,29.79,West,272,0.0,0.0,79,0.00,CLR,,0.40,WeatherDisplay:10.37,2013-11-02 03:05:00,
2013-11-01 23:06:00,58.1,51.6,29.79,West,272,0.0,0.0,79,0.00,CLR,,0.40,WeatherDisplay:10.37,2013-11-02 03:06:00,
2013-11-01 23:07:00,58.1,51.6,29.79,West,272,0.0,0.0,79,0.00,CLR,,0.40,WeatherDisplay:10.37,2013-11-02 03:07:00,
2013-11-01 23:08:00,58.1,51.6,29.79,West,272,0.0,0.0,79,0.00,CLR,,0.40,WeatherDisplay:10.37,2013-11-02 03:08:00,
2013-11-01 23:10:00,58.1,51.6,29.79,West,272,0.0,0.0,79,0.00,CLR,,0.40,WeatherDisplay:10.37,2013-11-02 03:10:00,
2013-11-01 23:12:00,58.1,51.6,29.79,West,272,0.0,0.0,79,0.00,CLR,,0.40,WeatherDisplay:10.37,2013-11-02 03:12:00,
2013-11-01 23:13:00,58.0,51.5,29.79,West,272,0.0,0.0,79,0.00,CLR,,0.40,WeatherDisplay:10.37,2013-11-02 03:13:00,
2013-11-01 23:15:00,58.0,51.5,29.79,West,272,0.0,0.0,79,0.00,CLR,,0.40,WeatherDisplay:10.37,2013-11-02 03:15:00,
2013-11-01 23:17:00,58.0,51.5,29.79,West,271,0.0,0.0,79,0.00,CLR,,0.40,WeatherDisplay:10.37,2013-11-02 03:17:00,
2013-11-01 23:18:00,57.9,51.4,29.79,West,271,0.0,0.0,79,0.00,CLR,,0.40,WeatherDisplay:10.37,2013-11-02 03:18:00,
2013-11-01 23:19:00,57.9,51.4,29.79,West,271,0.0,0.0,79,0.00,CLR,,0.40,WeatherDisplay:10.37,2013-11-02 03:19:00,
2013-11-01 23:20:00,57.8,51.3,29.79,West,271,0.0,0.0,79,0.00,CLR,,0.40,WeatherDisplay:10.37,2013-11-02 03:20:00,
2013-11-01 23:23:00,57.5,51.0,29.79,West,271,0.0,0.0,79,0.00,CLR,,0.40,WeatherDisplay:10.37,2013-11-02 03:23:00,
2013-11-01 23:24:00,57.4,51.3,29.79,West,271,0.0,0.0,80,0.00,CLR,,0.40,WeatherDisplay:10.37,2013-11-02 03:24:00,
2013-11-01 23:25:00,56.9,50.8,29.79,West,271,0.0,0.0,80,0.00,CLR,,0.40,WeatherDisplay:10.37,2013-11-02 03:25:00,
2013-11-01 23:29:00,57.4,51.3,29.79,West,271,0.0,0.0,80,0.00,CLR,,0.40,WeatherDisplay:10.37,2013-11-02 03:29:00,
2013-11-01 23:30:00,57.3,51.2,29.79,West,271,0.0,0.0,80,0.00,CLR,,0.40,WeatherDisplay:10.37,2013-11-02 03:30:00,
2013-11-01 23:34:00,57.2,51.1,29.79,West,272,0.0,0.0,80,0.00,CLR,,0.40,WeatherDisplay:10.37,2013-11-02 03:34:00,
2013-11-01 23:35:00,57.2,51.1,29.79,West,272,0.0,0.0,80,0.00,CLR,,0.40,WeatherDisplay:10.37,2013-11-02 03:35:00,
2013-11-01 23:36:00,57.1,51.0,29.79,West,271,0.0,0.0,80,0.00,CLR,,0.40,WeatherDisplay:10.37,2013-11-02 03:36:00,
2013-11-01 23:39:00,56.9,50.8,29.79,West,271,0.0,0.0,80,0.00,CLR,,0.40,WeatherDisplay:10.37,2013-11-02 03:39:00,
2013-11-01 23:40:00,56.8,50.7,29.79,West,271,0.0,0.0,80,0.00,CLR,,0.40,WeatherDisplay:10.37,2013-11-02 03:40:00,
2013-11-01 23:41:00,56.7,50.9,29.79,West,271,0.0,0.0,81,0.00,CLR,,0.40,WeatherDisplay:10.37,2013-11-02 03:41:00,
2013-11-01 23:44:00,56.6,50.5,29.79,West,272,0.0,0.0,80,0.00,CLR,,0.40,WeatherDisplay:10.37,2013-11-02 03:44:00,
2013-11-01 23:45:00,56.6,50.5,29.79,West,272,0.0,0.0,80,0.00,CLR,,0.40,WeatherDisplay:10.37,2013-11-02 03:45:00,
2013-11-01 23:46:00,56.6,50.5,29.79,West,271,0.0,0.0,80,0.00,CLR,,0.40,WeatherDisplay:10.37,2013-11-02 03:46:00,
2013-11-01 23:47:00,56.5,50.7,29.79,West,272,0.0,0.0,81,0.00,CLR,,0.40,WeatherDisplay:10.37,2013-11-02 03:47:00,
2013-11-01 23:49:00,56.7,50.9,29.79,West,272,0.0,0.0,81,0.00,CLR,,0.40,WeatherDisplay:10.37,2013-11-02 03:49:00,
2013-11-01 23:51:00,56.7,50.9,29.79,West,271,0.0,0.0,81,0.00,CLR,,0.40,WeatherDisplay:10.37,2013-11-02 03:51:00,
2013-11-01 23:52:00,56.7,50.9,29.79,West,271,0.0,0.0,81,0.00,CLR,,0.40,WeatherDisplay:10.37,2013-11-02 03:52:00,
2013-11-01 23:55:00,56.6,50.8,29.79,West,272,0.0,0.0,81,0.00,CLR,,0.40,WeatherDisplay:10.37,2013-11-02 03:55:00,
2013-11-01 23:56:00,56.5,50.7,29.79,West,271,0.0,0.0,81,0.00,CLR,,0.40,WeatherDisplay:10.37,2013-11-02 03:56:00,
2013-11-01 23:57:00,56.4,50.6,29.79,West,272,0.0,0.0,81,0.00,CLR,,0.40,WeatherDisplay:10.37,2013-11-02 03:57:00,